FBU24B LFPO-KMIA

Flight info

Callsign FBU24B
Flight time 8h 58m
Altitude 38000
Route LGL UN502 JSY DCT LIZAD DCT GAPLI/M085F380 DCT RODEL/M085F370 NATG NICSO/M084F400 DCT LOMPI M202 ONGOT DCT PADRK M203 SNAGY/N0480F400 BNFSH3
Aircraft A359/H-SDE2E3GHIJ3J4J5LM1ORWXY/LB1D1

Departure

Time 2026-05-06 14:36
Airport Paris-Orly Airport (LFPO)

Arrival

Time 2026-05-06 23:35
Airport Miami International Airport (KMIA)
Time Latitude Longitude Altitude Speed Heading
2026-05-06 14:14 48.72936 2.37587 304 ft 0 kts 310°
2026-05-06 14:27 48.72935 2.37588 303 ft 1 kts 310°
2026-05-06 14:27 48.72920 2.37616 303 ft 4 kts 310°
2026-05-06 14:27 48.72903 2.37646 302 ft 4 kts 311°
2026-05-06 14:27 48.72885 2.37676 304 ft 4 kts 312°
2026-05-06 14:28 48.72867 2.37708 304 ft 4 kts 306°
2026-05-06 14:28 48.72852 2.37741 303 ft 4 kts 304°
2026-05-06 14:28 48.72837 2.37773 300 ft 4 kts 289°
2026-05-06 14:28 48.72835 2.37795 303 ft 4 kts 197°
2026-05-06 14:29 48.72861 2.37799 303 ft 4 kts 183°
2026-05-06 14:29 48.72879 2.37802 301 ft 0 kts 198°
2026-05-06 14:31 48.72874 2.37800 301 ft 4 kts 199°
2026-05-06 14:32 48.72807 2.37762 301 ft 16 kts 198°
2026-05-06 14:32 48.72691 2.37665 302 ft 21 kts 237°
2026-05-06 14:32 48.72649 2.37458 302 ft 21 kts 255°
2026-05-06 14:32 48.72610 2.37243 299 ft 21 kts 254°
2026-05-06 14:33 48.72569 2.37023 303 ft 22 kts 255°
2026-05-06 14:33 48.72528 2.36796 303 ft 23 kts 255°
2026-05-06 14:33 48.72485 2.36563 302 ft 23 kts 255°
2026-05-06 14:33 48.72440 2.36328 302 ft 23 kts 254°
2026-05-06 14:34 48.72397 2.36092 303 ft 24 kts 255°
2026-05-06 14:34 48.72354 2.35850 302 ft 24 kts 255°
2026-05-06 14:34 48.72292 2.35629 303 ft 22 kts 215°
2026-05-06 14:34 48.72150 2.35627 301 ft 22 kts 161°
2026-05-06 14:35 48.72030 2.35753 304 ft 22 kts 125°
2026-05-06 14:35 48.71971 2.35936 304 ft 20 kts 93°
2026-05-06 14:35 48.71988 2.36112 302 ft 7 kts 74°
2026-05-06 14:35 48.72003 2.36191 303 ft 17 kts 74°
2026-05-06 14:36 48.72095 2.36686 304 ft 80 kts 73°
2026-05-06 14:36 48.72295 2.37780 302 ft 134 kts 74°
2026-05-06 14:36 48.72582 2.39356 410 ft 168 kts 71°
2026-05-06 14:36 48.72888 2.41052 1060 ft 165 kts 70°
2026-05-06 14:37 48.73173 2.42718 1717 ft 167 kts 72°
2026-05-06 14:37 48.73476 2.44433 2190 ft 169 kts 71°
2026-05-06 14:37 48.73812 2.46189 2567 ft 178 kts 71°
2026-05-06 14:37 48.74015 2.48113 2841 ft 197 kts 81°
2026-05-06 14:38 48.74122 2.50282 3094 ft 216 kts 83°
2026-05-06 14:38 48.74218 2.52669 3297 ft 237 kts 84°
2026-05-06 14:38 48.74274 2.55272 3609 ft 256 kts 91°
2026-05-06 14:38 48.73724 2.57891 4084 ft 269 kts 123°
2026-05-06 14:39 48.72278 2.59689 4711 ft 276 kts 158°
2026-05-06 14:39 48.70385 2.60009 5321 ft 278 kts 192°
2026-05-06 14:39 48.68699 2.58745 5947 ft 276 kts 226°
2026-05-06 14:39 48.67732 2.56291 6575 ft 272 kts 259°
2026-05-06 14:40 48.67490 2.53471 7256 ft 272 kts 268°
2026-05-06 14:40 48.67344 2.50638 7970 ft 274 kts 267°
2026-05-06 14:40 48.67152 2.47768 8707 ft 276 kts 265°
2026-05-06 14:40 48.66919 2.44890 9516 ft 275 kts 264°
2026-05-06 14:41 48.66663 2.42008 10169 ft 280 kts 263°
2026-05-06 14:41 48.66188 2.39080 10469 ft 298 kts 252°
2026-05-06 14:41 48.65416 2.36066 10764 ft 315 kts 249°
2026-05-06 14:41 48.64556 2.32928 11059 ft 331 kts 249°
2026-05-06 14:42 48.63657 2.29635 11414 ft 344 kts 249°
2026-05-06 14:42 48.63006 2.26191 12024 ft 347 kts 263°
2026-05-06 14:42 48.63045 2.22540 12645 ft 349 kts 277°
2026-05-06 14:42 48.63404 2.18875 13237 ft 356 kts 279°
2026-05-06 14:43 48.63801 2.15129 13734 ft 363 kts 279°
2026-05-06 14:43 48.64197 2.11345 14335 ft 365 kts 279°
2026-05-06 14:43 48.64588 2.07543 14934 ft 368 kts 279°
2026-05-06 14:43 48.64978 2.03705 15522 ft 370 kts 278°
2026-05-06 14:44 48.65367 1.99843 16054 ft 374 kts 278°
2026-05-06 14:44 48.65758 1.95940 16571 ft 378 kts 278°
2026-05-06 14:44 48.66147 1.92038 17149 ft 380 kts 278°
2026-05-06 14:45 48.67478 1.84189 18221 ft 389 kts 287°
2026-05-06 14:45 48.68298 1.80275 18815 ft 390 kts 287°
2026-05-06 14:45 48.69111 1.76389 19300 ft 394 kts 287°
2026-05-06 14:45 48.69939 1.72413 19813 ft 397 kts 287°
2026-05-06 14:46 48.70769 1.68408 20448 ft 397 kts 288°
2026-05-06 14:46 48.71600 1.64389 20954 ft 402 kts 288°
2026-05-06 14:46 48.72437 1.60325 21384 ft 406 kts 288°
2026-05-06 14:46 48.73271 1.56268 21913 ft 409 kts 288°
2026-05-06 14:47 48.74115 1.52136 22405 ft 413 kts 288°
2026-05-06 14:47 48.74782 1.47875 22918 ft 417 kts 279°
2026-05-06 14:47 48.75100 1.43488 23409 ft 421 kts 276°
2026-05-06 14:47 48.75316 1.39049 23840 ft 424 kts 275°
2026-05-06 14:48 48.75519 1.34577 24285 ft 426 kts 275°
2026-05-06 14:48 48.75726 1.30067 24712 ft 429 kts 275°
2026-05-06 14:48 48.75933 1.25551 25175 ft 431 kts 275°
2026-05-06 14:48 48.76140 1.21016 25617 ft 433 kts 275°
2026-05-06 14:49 48.76344 1.16513 26022 ft 435 kts 275°
2026-05-06 14:49 48.76552 1.11920 26442 ft 438 kts 275°
2026-05-06 14:49 48.76760 1.07298 26827 ft 441 kts 275°
2026-05-06 14:49 48.76968 1.02640 27228 ft 443 kts 275°
2026-05-06 14:50 48.77175 0.97965 27637 ft 446 kts 275°
2026-05-06 14:50 48.77381 0.93260 28032 ft 448 kts 275°
2026-05-06 14:50 48.77587 0.88531 28417 ft 451 kts 275°
2026-05-06 14:50 48.77792 0.83784 28835 ft 452 kts 275°
2026-05-06 14:51 48.77994 0.79015 29210 ft 454 kts 275°
2026-05-06 14:51 48.78197 0.74213 29557 ft 457 kts 275°
2026-05-06 14:51 48.78396 0.69454 29912 ft 460 kts 275°
2026-05-06 14:51 48.78596 0.64609 30207 ft 462 kts 275°
2026-05-06 14:52 48.78796 0.59714 30482 ft 465 kts 274°
2026-05-06 14:52 48.79039 0.54818 30753 ft 466 kts 278°
2026-05-06 14:52 48.79620 0.49985 31036 ft 467 kts 284°
2026-05-06 14:52 48.80403 0.45197 31315 ft 468 kts 286°
2026-05-06 14:53 48.81258 0.40424 31609 ft 469 kts 286°
2026-05-06 14:53 48.82144 0.35641 31850 ft 471 kts 287°
2026-05-06 14:53 48.83039 0.30840 32085 ft 474 kts 286°
2026-05-06 14:53 48.83931 0.26014 32271 ft 476 kts 287°
2026-05-06 14:54 48.84816 0.21166 32569 ft 476 kts 286°
2026-05-06 14:54 48.85694 0.16308 32861 ft 476 kts 286°
2026-05-06 14:54 48.86549 0.11529 33303 ft 474 kts 285°
2026-05-06 14:54 48.87410 0.06688 33535 ft 475 kts 285°
2026-05-06 14:55 48.88269 0.01831 33843 ft 475 kts 285°
2026-05-06 14:55 48.89126 -0.03020 34106 ft 474 kts 285°
2026-05-06 14:55 48.89975 -0.07840 34471 ft 470 kts 285°
2026-05-06 14:55 48.90818 -0.12637 34725 ft 470 kts 285°
2026-05-06 14:56 48.91659 -0.17439 34931 ft 470 kts 285°
2026-05-06 14:56 48.92499 -0.22238 35160 ft 469 kts 285°
2026-05-06 14:56 48.93328 -0.26986 35264 ft 471 kts 285°
2026-05-06 14:56 48.94158 -0.31812 35435 ft 472 kts 284°
2026-05-06 14:57 48.94979 -0.36669 35596 ft 473 kts 284°
2026-05-06 14:57 48.95791 -0.41522 35844 ft 471 kts 284°
2026-05-06 14:57 48.96598 -0.46359 36035 ft 471 kts 284°
2026-05-06 14:57 48.97130 -0.49548 36149 ft 471 kts 284°
2026-05-06 14:58 48.98201 -0.55977 36346 ft 472 kts 284°
2026-05-06 14:58 48.98747 -0.59256 36458 ft 472 kts 284°
2026-05-06 14:58 48.99554 -0.64111 36615 ft 473 kts 284°
2026-05-06 14:58 49.00350 -0.68906 36743 ft 474 kts 284°
2026-05-06 14:59 49.01155 -0.73772 36958 ft 472 kts 284°
2026-05-06 14:59 49.01961 -0.78650 37120 ft 472 kts 284°
2026-05-06 14:59 49.02758 -0.83494 37274 ft 472 kts 284°
2026-05-06 15:00 49.04352 -0.93229 37506 ft 473 kts 284°
2026-05-06 15:00 49.05146 -0.98094 37655 ft 473 kts 284°
2026-05-06 15:00 49.05936 -1.02955 37805 ft 473 kts 284°
2026-05-06 15:00 49.06716 -1.07763 37917 ft 473 kts 283°
2026-05-06 15:01 49.07504 -1.12636 37989 ft 474 kts 283°
2026-05-06 15:01 49.09093 -1.22468 37984 ft 479 kts 283°
2026-05-06 15:02 49.10693 -1.32337 37986 ft 479 kts 283°
2026-05-06 15:02 49.12283 -1.42201 37986 ft 478 kts 283°
2026-05-06 15:03 49.13857 -1.52025 37984 ft 478 kts 283°
2026-05-06 15:03 49.15429 -1.61899 37985 ft 479 kts 283°
2026-05-06 15:04 49.16996 -1.71802 37984 ft 478 kts 283°
2026-05-06 15:04 49.18551 -1.81694 37986 ft 478 kts 283°
2026-05-06 15:05 49.20100 -1.91602 37990 ft 479 kts 283°
2026-05-06 15:05 49.21629 -2.01447 37993 ft 478 kts 283°
2026-05-06 15:06 49.23210 -2.11356 37988 ft 479 kts 284°
2026-05-06 15:06 49.24923 -2.21201 37988 ft 479 kts 284°
2026-05-06 15:07 49.26639 -2.31036 37987 ft 477 kts 284°
2026-05-06 15:07 49.28309 -2.40795 37995 ft 477 kts 284°
2026-05-06 15:08 49.29971 -2.50640 37992 ft 476 kts 284°
2026-05-06 15:08 49.31619 -2.60475 37990 ft 476 kts 284°
2026-05-06 15:09 49.33262 -2.70326 37994 ft 476 kts 284°
2026-05-06 15:09 49.34882 -2.80095 37992 ft 475 kts 284°
2026-05-06 15:10 49.36504 -2.89927 37988 ft 475 kts 284°
2026-05-06 15:10 49.38114 -2.99747 37987 ft 475 kts 284°
2026-05-06 15:11 49.39717 -3.09586 37988 ft 475 kts 283°
2026-05-06 15:11 49.41314 -3.19438 37987 ft 475 kts 283°
2026-05-06 15:12 49.42891 -3.29228 37987 ft 475 kts 283°
2026-05-06 15:12 49.44468 -3.39077 37988 ft 475 kts 283°
2026-05-06 15:13 49.46037 -3.48930 37985 ft 475 kts 283°
2026-05-06 15:13 49.47600 -3.58809 37989 ft 474 kts 283°
2026-05-06 15:14 49.49141 -3.68606 37985 ft 474 kts 283°
2026-05-06 15:14 49.50684 -3.78475 37991 ft 473 kts 283°
2026-05-06 15:15 49.52219 -3.88351 37990 ft 473 kts 283°
2026-05-06 15:15 49.53743 -3.98219 37994 ft 473 kts 283°
2026-05-06 15:16 49.55250 -4.08032 37994 ft 474 kts 283°
2026-05-06 15:16 49.56757 -4.17914 37996 ft 474 kts 283°
2026-05-06 15:17 49.58260 -4.27824 37996 ft 474 kts 283°
2026-05-06 15:17 49.59728 -4.37720 37996 ft 474 kts 281°
2026-05-06 15:18 49.60997 -4.47708 37999 ft 474 kts 280°
2026-05-06 15:18 49.62201 -4.57635 37998 ft 474 kts 280°
2026-05-06 15:19 49.63432 -4.67620 37999 ft 474 kts 281°
2026-05-06 15:19 49.64676 -4.77614 37998 ft 474 kts 281°
2026-05-06 15:20 49.65916 -4.87606 37998 ft 474 kts 281°
2026-05-06 15:20 49.67138 -4.97532 37999 ft 474 kts 281°
2026-05-06 15:21 49.68361 -5.07551 37993 ft 474 kts 280°
2026-05-06 15:21 49.69572 -5.17549 37993 ft 474 kts 280°
2026-05-06 15:22 49.70769 -5.27513 37988 ft 474 kts 280°
2026-05-06 15:22 49.71964 -5.37531 37987 ft 474 kts 280°
2026-05-06 15:23 49.73150 -5.47556 37990 ft 474 kts 280°
2026-05-06 15:23 49.74329 -5.57591 37992 ft 474 kts 280°
2026-05-06 15:24 49.75495 -5.67605 37997 ft 474 kts 280°
2026-05-06 15:24 49.76648 -5.77579 37997 ft 474 kts 280°
2026-05-06 15:25 49.77800 -5.87621 38009 ft 474 kts 280°
2026-05-06 15:25 49.78945 -5.97686 38018 ft 474 kts 280°
2026-05-06 15:26 49.80082 -6.07765 38018 ft 475 kts 280°
2026-05-06 15:26 49.81201 -6.17767 38021 ft 474 kts 280°
2026-05-06 15:27 49.82320 -6.27843 38022 ft 474 kts 280°
2026-05-06 15:27 49.83429 -6.37912 38020 ft 474 kts 280°
2026-05-06 15:28 49.84531 -6.48011 38021 ft 474 kts 279°
2026-05-06 15:28 49.85623 -6.58096 38018 ft 474 kts 279°
2026-05-06 15:29 49.86699 -6.68119 38018 ft 474 kts 279°
2026-05-06 15:29 49.87774 -6.78226 38023 ft 474 kts 279°
2026-05-06 15:30 49.88840 -6.88326 38023 ft 474 kts 279°
2026-05-06 15:30 49.89896 -6.98426 38020 ft 474 kts 279°
2026-05-06 15:31 49.90945 -7.08542 38021 ft 474 kts 279°
2026-05-06 15:31 49.91974 -7.18553 38019 ft 475 kts 279°
2026-05-06 15:32 49.93523 -7.33795 38020 ft 475 kts 279°
2026-05-06 15:32 49.94542 -7.43936 38020 ft 476 kts 279°
2026-05-06 15:33 49.95553 -7.54088 38019 ft 476 kts 279°
2026-05-06 15:33 49.96550 -7.64194 38018 ft 476 kts 279°
2026-05-06 15:34 49.97545 -7.74370 38018 ft 476 kts 279°
2026-05-06 15:34 49.98530 -7.84539 38019 ft 476 kts 279°
2026-05-06 15:35 49.99507 -7.94729 38018 ft 476 kts 279°
2026-05-06 15:35 50.00487 -8.04927 38018 ft 476 kts 279°
2026-05-06 15:36 50.01516 -8.15043 38018 ft 476 kts 279°
2026-05-06 15:36 50.02557 -8.25217 38014 ft 476 kts 279°
2026-05-06 15:37 50.03581 -8.35412 38017 ft 477 kts 279°
2026-05-06 15:37 50.04591 -8.45619 38017 ft 477 kts 279°
2026-05-06 15:38 50.05584 -8.55762 38017 ft 477 kts 279°
2026-05-06 15:38 50.06573 -8.65973 38020 ft 477 kts 279°
2026-05-06 15:39 50.07555 -8.76186 38018 ft 477 kts 279°
2026-05-06 15:39 50.08529 -8.86424 38023 ft 478 kts 279°
2026-05-06 15:40 50.09494 -8.96667 38021 ft 478 kts 279°
2026-05-06 15:40 50.10446 -9.06867 38017 ft 478 kts 279°
2026-05-06 15:41 50.11396 -9.17144 38021 ft 478 kts 279°
2026-05-06 15:41 50.12336 -9.27422 38026 ft 479 kts 279°
2026-05-06 15:42 50.13270 -9.37728 38024 ft 480 kts 278°
2026-05-06 15:42 50.14187 -9.47958 38025 ft 480 kts 278°
2026-05-06 15:43 50.15105 -9.58302 38030 ft 480 kts 278°
2026-05-06 15:43 50.16010 -9.68616 38030 ft 480 kts 278°
2026-05-06 15:44 50.16901 -9.78868 38031 ft 480 kts 278°
2026-05-06 15:44 50.17791 -9.89216 38029 ft 480 kts 278°
2026-05-06 15:45 50.18670 -9.99553 38029 ft 480 kts 278°
2026-05-06 15:45 50.19535 -10.09827 38030 ft 480 kts 278°
2026-05-06 15:46 50.20396 -10.20173 38031 ft 480 kts 278°
2026-05-06 15:46 50.21247 -10.30508 38029 ft 480 kts 278°
2026-05-06 15:47 50.22089 -10.40857 38033 ft 480 kts 278°
2026-05-06 15:47 50.22918 -10.51155 38030 ft 480 kts 278°
2026-05-06 15:48 50.23743 -10.61521 38031 ft 480 kts 278°
2026-05-06 15:48 50.24557 -10.71877 38031 ft 481 kts 278°
2026-05-06 15:49 50.25362 -10.82223 38034 ft 481 kts 278°
2026-05-06 15:49 50.26159 -10.92606 38043 ft 481 kts 278°
2026-05-06 15:50 50.26816 -11.01253 38041 ft 481 kts 278°
2026-05-06 15:50 50.27722 -11.13323 38033 ft 481 kts 278°
2026-05-06 15:51 50.28368 -11.22037 38039 ft 482 kts 278°
2026-05-06 15:51 50.29132 -11.32455 38039 ft 482 kts 277°
2026-05-06 15:52 50.29882 -11.42809 38039 ft 482 kts 277°
2026-05-06 15:52 50.30627 -11.53227 38046 ft 482 kts 277°
2026-05-06 15:53 50.31363 -11.63661 38040 ft 483 kts 277°
2026-05-06 15:53 50.32093 -11.74138 38043 ft 484 kts 277°
2026-05-06 15:54 50.32813 -11.84610 38049 ft 484 kts 277°
2026-05-06 15:54 50.33518 -11.95009 38052 ft 484 kts 277°
2026-05-06 15:55 50.34219 -12.05496 38053 ft 484 kts 277°
2026-05-06 15:55 50.34911 -12.15977 38047 ft 484 kts 277°
2026-05-06 15:56 50.35594 -12.26475 38050 ft 484 kts 277°
2026-05-06 15:56 50.36269 -12.36993 38049 ft 485 kts 277°
2026-05-06 15:57 50.36928 -12.47425 38052 ft 485 kts 277°
2026-05-06 15:57 50.37583 -12.57930 38040 ft 485 kts 277°
2026-05-06 15:58 50.38228 -12.68445 38048 ft 485 kts 277°
2026-05-06 15:58 50.38865 -12.78978 38050 ft 485 kts 277°
2026-05-06 15:59 50.39492 -12.89508 38049 ft 485 kts 277°
2026-05-06 15:59 50.40111 -13.00053 38048 ft 485 kts 277°
2026-05-06 16:00 50.40714 -13.10515 38047 ft 485 kts 277°
2026-05-06 16:00 50.41313 -13.21047 38043 ft 485 kts 277°
2026-05-06 16:01 50.41904 -13.31615 38045 ft 485 kts 277°
2026-05-06 16:01 50.42483 -13.42164 38049 ft 485 kts 277°
2026-05-06 16:02 50.43054 -13.52711 38048 ft 485 kts 276°
2026-05-06 16:02 50.43611 -13.63210 38054 ft 485 kts 276°
2026-05-06 16:03 50.44163 -13.73772 38054 ft 485 kts 276°
2026-05-06 16:03 50.44704 -13.84329 38054 ft 485 kts 276°
2026-05-06 16:04 50.45236 -13.94872 38054 ft 485 kts 276°
2026-05-06 16:04 50.45755 -14.05369 38046 ft 485 kts 276°
2026-05-06 16:05 50.46268 -14.15924 38050 ft 485 kts 276°
2026-05-06 16:05 50.46771 -14.26490 38049 ft 485 kts 276°
2026-05-06 16:06 50.47265 -14.37060 38051 ft 486 kts 276°
2026-05-06 16:06 50.47750 -14.47640 38053 ft 486 kts 276°
2026-05-06 16:07 50.48226 -14.58226 38055 ft 486 kts 276°
2026-05-06 16:07 50.48690 -14.68769 38056 ft 486 kts 276°
2026-05-06 16:08 50.49147 -14.79386 38053 ft 486 kts 276°
2026-05-06 16:08 50.49594 -14.89986 38056 ft 486 kts 275°
2026-05-06 16:09 50.50157 -15.00497 38050 ft 484 kts 282°
2026-05-06 16:09 50.51316 -15.10917 38053 ft 483 kts 282°
2026-05-06 16:10 50.52573 -15.21288 38053 ft 483 kts 283°
2026-05-06 16:10 50.53838 -15.31664 38051 ft 483 kts 283°
2026-05-06 16:11 50.55082 -15.42037 38051 ft 483 kts 283°
2026-05-06 16:11 50.56302 -15.52336 38043 ft 481 kts 283°
2026-05-06 16:12 50.57512 -15.62656 38045 ft 479 kts 282°
2026-05-06 16:12 50.58712 -15.72967 38045 ft 479 kts 282°
2026-05-06 16:13 50.59904 -15.83292 38048 ft 479 kts 282°
2026-05-06 16:13 50.61079 -15.93549 38048 ft 479 kts 282°
2026-05-06 16:14 50.62253 -16.03887 38029 ft 479 kts 282°
2026-05-06 16:14 50.63417 -16.14215 38043 ft 478 kts 282°
2026-05-06 16:15 50.64568 -16.24524 38046 ft 478 kts 282°
2026-05-06 16:15 50.65704 -16.34773 38052 ft 478 kts 282°
2026-05-06 16:16 50.66838 -16.45095 38040 ft 477 kts 281°
2026-05-06 16:16 50.67960 -16.55403 38028 ft 477 kts 281°
2026-05-06 16:17 50.69074 -16.65715 38042 ft 477 kts 281°
2026-05-06 16:17 50.70180 -16.76045 38035 ft 477 kts 281°
2026-05-06 16:18 50.71275 -16.86367 38040 ft 477 kts 281°
2026-05-06 16:18 50.72360 -16.96689 38035 ft 477 kts 281°
2026-05-06 16:19 50.73432 -17.06967 38037 ft 477 kts 281°
2026-05-06 16:19 50.74499 -17.17292 38031 ft 476 kts 280°
2026-05-06 16:20 50.75555 -17.27610 38029 ft 475 kts 280°
2026-05-06 16:20 50.76601 -17.37912 38028 ft 475 kts 280°
2026-05-06 16:21 50.77639 -17.48241 38030 ft 475 kts 280°
2026-05-06 16:21 50.78662 -17.58513 38028 ft 475 kts 280°
2026-05-06 16:22 50.79679 -17.68819 38028 ft 474 kts 279°
2026-05-06 16:22 50.80686 -17.79116 38031 ft 473 kts 279°
2026-05-06 16:23 50.81681 -17.89399 38028 ft 472 kts 279°
2026-05-06 16:23 50.82667 -17.99672 38029 ft 473 kts 279°
2026-05-06 16:24 50.83645 -18.09965 38029 ft 473 kts 279°
2026-05-06 16:24 50.84613 -18.20249 38031 ft 472 kts 278°
2026-05-06 16:25 50.85571 -18.30532 38029 ft 472 kts 278°
2026-05-06 16:25 50.86519 -18.40807 38031 ft 471 kts 278°
2026-05-06 16:26 50.87452 -18.51029 38031 ft 471 kts 278°
2026-05-06 16:26 50.88381 -18.61303 38028 ft 471 kts 278°
2026-05-06 16:27 50.89303 -18.71597 38029 ft 471 kts 277°
2026-05-06 16:27 50.90214 -18.81881 38031 ft 471 kts 277°
2026-05-06 16:28 50.91114 -18.92151 38031 ft 471 kts 277°
2026-05-06 16:28 50.92005 -19.02419 38028 ft 471 kts 277°
2026-05-06 16:29 50.92883 -19.12635 38029 ft 471 kts 277°
2026-05-06 16:29 50.93758 -19.22930 38029 ft 471 kts 276°
2026-05-06 16:30 50.94480 -19.31516 38028 ft 472 kts 276°
2026-05-06 16:30 50.95486 -19.43606 38028 ft 473 kts 276°
2026-05-06 16:31 50.96332 -19.53895 38026 ft 473 kts 276°
2026-05-06 16:31 50.97173 -19.64240 38026 ft 473 kts 276°
2026-05-06 16:32 50.98005 -19.74594 38026 ft 473 kts 276°
2026-05-06 16:32 50.98829 -19.84951 38026 ft 473 kts 276°
2026-05-06 16:33 50.99644 -19.95329 38026 ft 473 kts 276°
2026-05-06 16:34 51.00617 -20.10838 38027 ft 472 kts 272°
2026-05-06 16:34 51.00967 -20.21260 38026 ft 472 kts 272°
2026-05-06 16:35 51.01329 -20.31669 38025 ft 472 kts 272°
2026-05-06 16:35 51.01726 -20.42074 38026 ft 472 kts 272°
2026-05-06 16:36 51.02128 -20.52433 38026 ft 472 kts 272°
2026-05-06 16:36 51.02524 -20.62829 38026 ft 472 kts 272°
2026-05-06 16:37 51.02911 -20.73259 38024 ft 472 kts 272°
2026-05-06 16:37 51.03286 -20.83657 38023 ft 471 kts 272°
2026-05-06 16:38 51.03650 -20.94006 38027 ft 471 kts 272°
2026-05-06 16:38 51.04006 -21.04409 38026 ft 471 kts 272°
2026-05-06 16:39 51.04295 -21.13063 38026 ft 471 kts 272°
2026-05-06 16:39 51.04635 -21.23466 38026 ft 471 kts 271°
2026-05-06 16:40 51.04965 -21.33862 38023 ft 470 kts 271°
2026-05-06 16:40 51.05283 -21.44188 38023 ft 471 kts 271°
2026-05-06 16:41 51.05595 -21.54593 38025 ft 471 kts 271°
2026-05-06 16:41 51.05897 -21.64992 38022 ft 471 kts 271°
2026-05-06 16:42 51.06190 -21.75387 38020 ft 470 kts 271°
2026-05-06 16:42 51.06473 -21.85788 38019 ft 470 kts 271°
2026-05-06 16:43 51.06745 -21.96096 38024 ft 469 kts 271°
2026-05-06 16:43 51.07010 -22.06457 38024 ft 469 kts 271°
2026-05-06 16:44 51.07265 -22.16833 38018 ft 469 kts 271°
2026-05-06 16:44 51.07511 -22.27208 38018 ft 469 kts 271°
2026-05-06 16:45 51.07748 -22.37572 38018 ft 468 kts 271°
2026-05-06 16:45 51.07974 -22.47871 38002 ft 469 kts 271°
2026-05-06 16:46 51.08193 -22.58246 38013 ft 469 kts 271°
2026-05-06 16:46 51.08402 -22.68612 38005 ft 469 kts 271°
2026-05-06 16:47 51.08603 -22.78985 38002 ft 469 kts 271°
2026-05-06 16:47 51.08793 -22.89358 38006 ft 469 kts 270°
2026-05-06 16:48 51.08976 -22.99767 38020 ft 470 kts 270°
2026-05-06 16:48 51.09148 -23.10090 38013 ft 470 kts 270°
2026-05-06 16:49 51.09311 -23.20483 38012 ft 470 kts 270°
2026-05-06 16:49 51.09466 -23.30869 38003 ft 470 kts 270°
2026-05-06 16:50 51.09611 -23.41269 37995 ft 470 kts 270°
2026-05-06 16:50 51.09748 -23.51667 37998 ft 470 kts 270°
2026-05-06 16:51 51.09874 -23.62009 38007 ft 470 kts 270°
2026-05-06 16:51 51.09992 -23.72415 37991 ft 470 kts 270°
2026-05-06 16:52 51.10101 -23.82810 38001 ft 470 kts 270°
2026-05-06 16:52 51.10200 -23.93208 37993 ft 469 kts 270°
2026-05-06 16:53 51.10290 -24.03588 37987 ft 469 kts 270°
2026-05-06 16:53 51.10370 -24.13901 37987 ft 469 kts 270°
2026-05-06 16:54 51.10441 -24.24282 37994 ft 469 kts 270°
2026-05-06 16:54 51.10504 -24.34675 37981 ft 469 kts 269°
2026-05-06 16:55 51.10557 -24.45076 37972 ft 469 kts 269°
2026-05-06 16:55 51.10601 -24.55451 37982 ft 469 kts 269°
2026-05-06 16:56 51.10636 -24.65793 37984 ft 470 kts 269°
2026-05-06 16:56 51.10661 -24.76215 37981 ft 471 kts 269°
2026-05-06 16:57 51.10678 -24.86655 37976 ft 471 kts 269°
2026-05-06 16:57 51.10686 -24.97093 37974 ft 471 kts 269°
2026-05-06 16:58 51.10683 -25.07521 37958 ft 471 kts 269°
2026-05-06 16:58 51.10672 -25.17949 37966 ft 471 kts 269°
2026-05-06 16:59 51.10652 -25.28316 37962 ft 471 kts 269°
2026-05-06 16:59 51.10622 -25.38747 37958 ft 471 kts 269°
2026-05-06 17:00 51.10583 -25.49172 37953 ft 471 kts 269°
2026-05-06 17:00 51.10534 -25.59597 37963 ft 471 kts 269°
2026-05-06 17:01 51.10476 -25.70037 37953 ft 471 kts 269°
2026-05-06 17:01 51.10409 -25.80478 37949 ft 473 kts 269°
2026-05-06 17:02 51.10332 -25.90977 37943 ft 474 kts 268°
2026-05-06 17:02 51.10247 -26.01407 37945 ft 474 kts 268°
2026-05-06 17:03 51.10152 -26.11903 37945 ft 474 kts 268°
2026-05-06 17:03 51.10048 -26.22320 37940 ft 473 kts 268°
2026-05-06 17:04 51.09934 -26.32797 37931 ft 473 kts 268°
2026-05-06 17:04 51.09810 -26.43282 37934 ft 474 kts 268°
2026-05-06 17:05 51.09677 -26.53779 37926 ft 474 kts 268°
2026-05-06 17:05 51.09534 -26.64287 37921 ft 475 kts 268°
2026-05-06 17:06 51.09383 -26.74732 37924 ft 475 kts 268°
2026-05-06 17:06 51.09222 -26.85265 37923 ft 475 kts 268°
2026-05-06 17:07 51.09050 -26.95790 37921 ft 476 kts 268°
2026-05-06 17:07 51.08869 -27.06333 37919 ft 477 kts 268°
2026-05-06 17:08 51.08679 -27.16857 37909 ft 478 kts 268°
2026-05-06 17:08 51.08479 -27.27447 37911 ft 478 kts 268°
2026-05-06 17:09 51.08270 -27.37959 37912 ft 478 kts 268°
2026-05-06 17:09 51.08050 -27.48532 37912 ft 478 kts 268°
2026-05-06 17:10 51.07821 -27.59092 37907 ft 478 kts 268°
2026-05-06 17:10 51.07583 -27.69671 37909 ft 478 kts 268°
2026-05-06 17:11 51.07334 -27.80248 37912 ft 478 kts 268°
2026-05-06 17:11 51.07077 -27.90823 37912 ft 479 kts 268°
2026-05-06 17:12 51.06810 -28.01347 37912 ft 479 kts 268°
2026-05-06 17:12 51.06533 -28.11938 37908 ft 479 kts 268°
2026-05-06 17:13 51.06246 -28.22527 37913 ft 479 kts 268°
2026-05-06 17:13 51.05950 -28.33118 37913 ft 479 kts 267°
2026-05-06 17:14 51.05644 -28.43689 37916 ft 479 kts 267°
2026-05-06 17:14 51.05330 -28.54211 37917 ft 479 kts 267°
2026-05-06 17:15 51.05006 -28.64780 37916 ft 478 kts 267°
2026-05-06 17:15 51.04673 -28.75300 37920 ft 475 kts 267°
2026-05-06 17:16 51.04332 -28.85787 37928 ft 476 kts 267°
2026-05-06 17:16 51.03981 -28.96296 37927 ft 475 kts 267°
2026-05-06 17:17 51.03621 -29.06783 37933 ft 476 kts 267°
2026-05-06 17:17 51.03254 -29.17204 37936 ft 474 kts 267°
2026-05-06 17:18 51.02874 -29.27706 37942 ft 475 kts 267°
2026-05-06 17:18 51.02487 -29.38175 37942 ft 474 kts 267°
2026-05-06 17:19 51.02092 -29.48589 37953 ft 475 kts 267°
2026-05-06 17:19 51.01686 -29.59052 37955 ft 475 kts 266°
2026-05-06 17:20 51.01269 -29.69543 37963 ft 475 kts 267°
2026-05-06 17:20 51.00843 -29.80037 37967 ft 476 kts 266°
2026-05-06 17:21 51.00411 -29.90448 37962 ft 474 kts 266°
2026-05-06 17:21 50.99967 -30.00930 37965 ft 476 kts 266°
2026-05-06 17:22 50.99769 -30.11426 37975 ft 475 kts 270°
2026-05-06 17:22 50.99767 -30.21933 37977 ft 476 kts 270°
2026-05-06 17:23 50.99729 -30.32317 37982 ft 475 kts 270°
2026-05-06 17:23 50.99637 -30.42849 37981 ft 476 kts 269°
2026-05-06 17:24 50.99519 -30.53342 37991 ft 475 kts 269°
2026-05-06 17:24 50.99391 -30.63841 37991 ft 476 kts 269°
2026-05-06 17:25 50.99255 -30.74366 37997 ft 475 kts 269°
2026-05-06 17:25 50.99111 -30.84817 37999 ft 476 kts 269°
2026-05-06 17:26 50.98957 -30.95326 38005 ft 476 kts 269°
2026-05-06 17:26 50.98794 -31.05848 38009 ft 476 kts 269°
2026-05-06 17:27 50.98651 -31.14598 38012 ft 476 kts 269°
2026-05-06 17:27 50.98470 -31.25109 38009 ft 477 kts 269°
2026-05-06 17:28 50.98280 -31.35629 38022 ft 477 kts 269°
2026-05-06 17:28 50.98081 -31.46158 38024 ft 477 kts 269°
2026-05-06 17:29 50.97872 -31.56683 38030 ft 477 kts 269°
2026-05-06 17:29 50.97653 -31.67208 38032 ft 477 kts 269°
2026-05-06 17:30 50.97425 -31.77726 38031 ft 477 kts 269°
2026-05-06 17:30 50.97189 -31.88187 38035 ft 477 kts 269°
2026-05-06 17:31 50.96942 -31.98717 38043 ft 477 kts 269°
2026-05-06 17:31 50.96685 -32.09251 38042 ft 477 kts 269°
2026-05-06 17:32 50.96419 -32.19787 38052 ft 478 kts 269°
2026-05-06 17:32 50.96144 -32.30269 38038 ft 478 kts 269°
2026-05-06 17:33 50.95859 -32.40796 38060 ft 478 kts 269°
2026-05-06 17:33 50.95565 -32.51331 38052 ft 477 kts 269°
2026-05-06 17:34 50.95260 -32.61866 38053 ft 477 kts 269°
2026-05-06 17:34 50.94947 -32.72379 38067 ft 478 kts 269°
2026-05-06 17:35 50.94626 -32.82865 38065 ft 478 kts 269°
2026-05-06 17:35 50.94293 -32.93376 38075 ft 477 kts 269°
2026-05-06 17:36 50.93780 -33.09081 38072 ft 477 kts 269°
2026-05-06 17:36 50.93424 -33.19594 38074 ft 477 kts 269°
2026-05-06 17:37 50.93059 -33.30100 38071 ft 477 kts 269°
2026-05-06 17:37 50.92684 -33.40614 38064 ft 477 kts 269°
2026-05-06 17:38 50.92302 -33.51058 38080 ft 477 kts 269°
2026-05-06 17:38 50.91910 -33.61548 38077 ft 477 kts 269°
2026-05-06 17:39 50.91508 -33.72039 38089 ft 477 kts 269°
2026-05-06 17:39 50.91096 -33.82527 38083 ft 477 kts 269°
2026-05-06 17:40 50.90675 -33.93020 38074 ft 477 kts 269°
2026-05-06 17:40 50.90247 -34.03424 38085 ft 476 kts 269°
2026-05-06 17:41 50.89807 -34.13910 38085 ft 476 kts 268°
2026-05-06 17:41 50.89360 -34.24363 38087 ft 476 kts 268°
2026-05-06 17:42 50.88902 -34.34829 38089 ft 476 kts 268°
2026-05-06 17:42 50.88434 -34.45301 38071 ft 476 kts 268°
2026-05-06 17:43 50.87958 -34.55742 38091 ft 475 kts 268°
2026-05-06 17:43 50.87476 -34.66123 38094 ft 475 kts 268°
2026-05-06 17:44 50.86982 -34.76550 38091 ft 475 kts 268°
2026-05-06 17:44 50.86479 -34.86980 38097 ft 475 kts 268°
2026-05-06 17:45 50.85965 -34.97425 38103 ft 475 kts 268°
2026-05-06 17:45 50.85447 -35.07777 38102 ft 474 kts 268°
2026-05-06 17:46 50.84916 -35.18178 38099 ft 473 kts 268°
2026-05-06 17:46 50.84378 -35.28559 38099 ft 473 kts 268°
2026-05-06 17:47 50.83831 -35.38939 38102 ft 473 kts 268°
2026-05-06 17:47 50.83273 -35.49337 38102 ft 473 kts 268°
2026-05-06 17:48 50.82706 -35.59726 38102 ft 474 kts 268°
2026-05-06 17:48 50.82133 -35.70071 38107 ft 474 kts 268°
2026-05-06 17:49 50.81546 -35.80478 38105 ft 474 kts 268°
2026-05-06 17:49 50.80956 -35.90788 38110 ft 474 kts 268°
2026-05-06 17:50 50.80351 -36.01186 38110 ft 474 kts 268°
2026-05-06 17:50 50.79741 -36.11503 38114 ft 473 kts 268°
2026-05-06 17:51 50.79121 -36.21828 38116 ft 471 kts 268°
2026-05-06 17:51 50.78494 -36.32141 38118 ft 471 kts 268°
2026-05-06 17:52 50.77857 -36.42468 38118 ft 471 kts 268°
2026-05-06 17:52 50.77211 -36.52773 38121 ft 471 kts 268°
2026-05-06 17:53 50.76559 -36.63028 38120 ft 471 kts 268°
2026-05-06 17:53 50.75897 -36.73291 38127 ft 469 kts 268°
2026-05-06 17:54 50.75228 -36.83528 38127 ft 469 kts 268°
2026-05-06 17:54 50.74550 -36.93778 38127 ft 469 kts 268°
2026-05-06 17:55 50.73862 -37.04021 38130 ft 469 kts 268°
2026-05-06 17:55 50.73169 -37.14213 38123 ft 469 kts 268°
2026-05-06 17:56 50.72464 -37.24415 38138 ft 466 kts 268°
2026-05-06 17:56 50.71757 -37.34541 38137 ft 466 kts 268°
2026-05-06 17:57 50.71039 -37.44710 38133 ft 466 kts 268°
2026-05-06 17:57 50.70313 -37.54859 38141 ft 466 kts 268°
2026-05-06 17:58 50.69576 -37.65030 38108 ft 466 kts 268°
2026-05-06 17:58 50.68832 -37.75152 38140 ft 463 kts 268°
2026-05-06 17:59 50.68081 -37.85253 38143 ft 462 kts 268°
2026-05-06 17:59 50.67330 -37.95262 38142 ft 462 kts 268°
2026-05-06 18:00 50.66563 -38.05349 38148 ft 463 kts 268°
2026-05-06 18:00 50.65789 -38.15416 38148 ft 462 kts 268°
2026-05-06 18:01 50.65005 -38.25478 38146 ft 461 kts 268°
2026-05-06 18:01 50.64220 -38.35446 38152 ft 460 kts 268°
2026-05-06 18:02 50.63423 -38.45469 38151 ft 460 kts 268°
2026-05-06 18:02 50.62620 -38.55463 38151 ft 460 kts 268°
2026-05-06 18:03 50.61812 -38.65403 38151 ft 460 kts 268°
2026-05-06 18:03 50.60991 -38.75386 38146 ft 460 kts 268°
2026-05-06 18:04 50.60161 -38.85356 38153 ft 458 kts 268°
2026-05-06 18:04 50.59326 -38.95303 38151 ft 458 kts 268°
2026-05-06 18:05 50.58483 -39.05244 38158 ft 458 kts 268°
2026-05-06 18:05 50.57630 -39.15199 38157 ft 458 kts 268°
2026-05-06 18:06 50.56774 -39.25077 38132 ft 458 kts 268°
2026-05-06 18:06 50.55907 -39.34971 38158 ft 456 kts 268°
2026-05-06 18:07 50.55035 -39.44835 38159 ft 455 kts 268°
2026-05-06 18:07 50.54154 -39.54716 38160 ft 456 kts 268°
2026-05-06 18:08 50.53270 -39.64526 38164 ft 456 kts 268°
2026-05-06 18:08 50.52373 -39.74388 38157 ft 456 kts 268°
2026-05-06 18:09 50.51466 -39.84262 38163 ft 456 kts 268°
2026-05-06 18:09 50.50551 -39.94125 38166 ft 456 kts 268°
2026-05-06 18:10 50.49205 -40.03927 38165 ft 462 kts 261°
2026-05-06 18:10 50.47369 -40.13595 38165 ft 464 kts 259°
2026-05-06 18:11 50.45767 -40.21637 38169 ft 464 kts 259°
2026-05-06 18:11 50.43499 -40.32940 38169 ft 464 kts 259°
2026-05-06 18:12 50.41574 -40.42543 38170 ft 463 kts 259°
2026-05-06 18:12 50.39632 -40.52219 38173 ft 463 kts 259°
2026-05-06 18:13 50.37702 -40.61798 38173 ft 463 kts 259°
2026-05-06 18:13 50.35750 -40.71432 38173 ft 464 kts 259°
2026-05-06 18:14 50.33790 -40.81052 38176 ft 464 kts 259°
2026-05-06 18:14 50.31822 -40.90667 38175 ft 464 kts 259°
2026-05-06 18:15 50.29860 -41.00208 38174 ft 463 kts 259°
2026-05-06 18:15 50.27881 -41.09781 38181 ft 462 kts 259°
2026-05-06 18:16 50.25900 -41.19320 38177 ft 459 kts 259°
2026-05-06 18:16 50.24259 -41.27183 38178 ft 456 kts 259°
2026-05-06 18:17 50.22287 -41.36604 38178 ft 456 kts 259°
2026-05-06 18:17 50.20309 -41.46015 38178 ft 456 kts 259°
2026-05-06 18:18 50.18322 -41.55418 38178 ft 456 kts 259°
2026-05-06 18:18 50.16328 -41.64796 38181 ft 452 kts 259°
2026-05-06 18:19 50.14347 -41.74068 38172 ft 450 kts 259°
2026-05-06 18:19 50.12364 -41.83327 38177 ft 450 kts 258°
2026-05-06 18:20 50.10387 -41.92518 38166 ft 450 kts 258°
2026-05-06 18:20 50.08388 -42.01764 38176 ft 450 kts 258°
2026-05-06 18:21 50.06385 -42.10976 38181 ft 446 kts 258°
2026-05-06 18:21 50.04388 -42.20123 38177 ft 446 kts 258°
2026-05-06 18:22 50.02399 -42.29204 38173 ft 446 kts 258°
2026-05-06 18:22 50.00391 -42.38329 38176 ft 445 kts 258°
2026-05-06 18:23 49.98379 -42.47429 38150 ft 444 kts 257°
2026-05-06 18:23 49.96360 -42.56522 38180 ft 445 kts 257°
2026-05-06 18:24 49.94345 -42.65558 38179 ft 445 kts 257°
2026-05-06 18:24 49.92305 -42.74664 38179 ft 446 kts 257°
2026-05-06 18:25 49.90261 -42.83745 38181 ft 446 kts 257°
2026-05-06 18:25 49.88211 -42.92823 38181 ft 446 kts 257°
2026-05-06 18:26 49.86159 -43.01869 38183 ft 448 kts 256°
2026-05-06 18:26 49.84084 -43.10970 38183 ft 448 kts 256°
2026-05-06 18:27 49.81998 -43.20080 38177 ft 448 kts 256°
2026-05-06 18:27 49.79907 -43.29178 38182 ft 448 kts 256°
2026-05-06 18:28 49.77806 -43.38279 38175 ft 449 kts 256°
2026-05-06 18:28 49.75709 -43.47325 38183 ft 449 kts 256°
2026-05-06 18:29 49.73593 -43.56414 38182 ft 449 kts 256°
2026-05-06 18:29 49.71469 -43.65498 38174 ft 449 kts 255°
2026-05-06 18:30 49.69337 -43.74579 38181 ft 449 kts 255°
2026-05-06 18:30 49.67198 -43.83647 38183 ft 448 kts 255°
2026-05-06 18:31 49.65058 -43.92685 38184 ft 448 kts 255°
2026-05-06 18:31 49.62912 -44.01713 38184 ft 448 kts 255°
2026-05-06 18:32 49.60771 -44.10682 38186 ft 448 kts 255°
2026-05-06 18:32 49.58609 -44.19700 38169 ft 448 kts 255°
2026-05-06 18:33 49.56440 -44.28708 38184 ft 447 kts 255°
2026-05-06 18:33 49.54272 -44.37679 38185 ft 447 kts 255°
2026-05-06 18:34 49.52110 -44.46590 38187 ft 447 kts 255°
2026-05-06 18:34 49.49931 -44.55534 38187 ft 447 kts 255°
2026-05-06 18:35 49.47741 -44.64484 38177 ft 446 kts 254°
2026-05-06 18:35 49.45553 -44.73390 38182 ft 445 kts 254°
2026-05-06 18:36 49.43359 -44.82285 38183 ft 445 kts 254°
2026-05-06 18:36 49.41161 -44.91161 38181 ft 444 kts 254°
2026-05-06 18:37 49.38955 -45.00037 38186 ft 444 kts 254°
2026-05-06 18:37 49.36743 -45.08900 38185 ft 444 kts 254°
2026-05-06 18:38 49.34539 -45.17696 38187 ft 445 kts 254°
2026-05-06 18:38 49.32313 -45.26544 38188 ft 445 kts 254°
2026-05-06 18:39 49.30077 -45.35394 38184 ft 445 kts 254°
2026-05-06 18:40 49.26715 -45.48642 38190 ft 444 kts 253°
2026-05-06 18:40 49.24467 -45.57455 38190 ft 443 kts 253°
2026-05-06 18:41 49.22218 -45.66240 38191 ft 443 kts 253°
2026-05-06 18:41 49.19974 -45.74970 38191 ft 443 kts 253°
2026-05-06 18:42 49.17706 -45.83762 38198 ft 444 kts 253°
2026-05-06 18:42 49.15434 -45.92535 38197 ft 444 kts 253°
2026-05-06 18:43 49.13155 -46.01300 38200 ft 444 kts 253°
2026-05-06 18:43 49.10871 -46.10049 38200 ft 444 kts 253°
2026-05-06 18:44 49.08578 -46.18801 38197 ft 443 kts 252°
2026-05-06 18:44 49.06286 -46.27514 38180 ft 442 kts 252°
2026-05-06 18:45 49.04005 -46.36155 38200 ft 442 kts 252°
2026-05-06 18:45 49.01705 -46.44835 38205 ft 441 kts 252°
2026-05-06 18:46 48.99395 -46.53518 38205 ft 442 kts 252°
2026-05-06 18:46 48.97084 -46.62176 38208 ft 442 kts 252°
2026-05-06 18:47 48.94761 -46.70848 38202 ft 441 kts 251°
2026-05-06 18:47 48.92452 -46.79430 38208 ft 440 kts 251°
2026-05-06 18:48 48.90125 -46.88047 38207 ft 440 kts 251°
2026-05-06 18:48 48.87789 -46.96668 38211 ft 440 kts 251°
2026-05-06 18:49 48.85450 -47.05271 38211 ft 440 kts 251°
2026-05-06 18:49 48.83117 -47.13820 38211 ft 439 kts 250°
2026-05-06 18:50 48.80768 -47.22392 38208 ft 439 kts 250°
2026-05-06 18:50 48.78416 -47.30944 38211 ft 439 kts 250°
2026-05-06 18:51 48.76076 -47.39424 38211 ft 439 kts 250°
2026-05-06 18:51 48.73717 -47.47944 38216 ft 438 kts 250°
2026-05-06 18:52 48.71349 -47.56467 38219 ft 438 kts 249°
2026-05-06 18:52 48.68973 -47.64983 38219 ft 439 kts 249°
2026-05-06 18:53 48.66591 -47.73492 38219 ft 439 kts 249°
2026-05-06 18:53 48.64204 -47.81985 38218 ft 439 kts 249°
2026-05-06 18:54 48.61823 -47.90434 38212 ft 439 kts 249°
2026-05-06 18:54 48.59417 -47.98938 38217 ft 441 kts 249°
2026-05-06 18:55 48.56996 -48.07465 38220 ft 441 kts 249°
2026-05-06 18:55 48.54566 -48.15988 38227 ft 441 kts 248°
2026-05-06 18:56 48.52132 -48.24499 38224 ft 441 kts 248°
2026-05-06 18:56 48.49706 -48.32955 38230 ft 442 kts 248°
2026-05-06 18:57 48.47253 -48.41472 38222 ft 443 kts 248°
2026-05-06 18:57 48.44792 -48.49987 38224 ft 443 kts 248°
2026-05-06 18:58 48.42322 -48.58502 38229 ft 443 kts 248°
2026-05-06 18:58 48.39845 -48.67016 38219 ft 444 kts 247°
2026-05-06 18:59 48.37370 -48.75489 38222 ft 446 kts 247°
2026-05-06 18:59 48.34871 -48.84016 38227 ft 446 kts 247°
2026-05-06 19:00 48.32358 -48.92558 38225 ft 446 kts 247°
2026-05-06 19:00 48.29842 -49.01082 38237 ft 446 kts 247°
2026-05-06 19:01 48.27318 -49.09606 38225 ft 446 kts 246°
2026-05-06 19:01 48.24806 -49.18058 38226 ft 446 kts 246°
2026-05-06 19:02 48.22272 -49.26554 38231 ft 446 kts 246°
2026-05-06 19:02 48.19730 -49.35049 38236 ft 446 kts 246°
2026-05-06 19:03 48.17612 -49.42104 38229 ft 446 kts 246°
2026-05-06 19:03 48.15052 -49.50606 38236 ft 448 kts 246°
2026-05-06 19:04 48.12478 -49.59122 38231 ft 448 kts 246°
2026-05-06 19:04 48.09916 -49.67571 38237 ft 448 kts 246°
2026-05-06 19:05 48.07324 -49.76088 38239 ft 449 kts 246°
2026-05-06 19:05 48.04733 -49.84574 38237 ft 448 kts 246°
2026-05-06 19:06 48.02133 -49.93061 38242 ft 449 kts 246°
2026-05-06 19:06 47.99655 -50.01620 38236 ft 449 kts 250°
2026-05-06 19:07 47.97494 -50.10386 38239 ft 449 kts 250°
2026-05-06 19:07 47.95401 -50.19100 38238 ft 449 kts 250°
2026-05-06 19:08 47.93288 -50.27893 38239 ft 449 kts 250°
2026-05-06 19:08 47.91167 -50.36659 38241 ft 449 kts 250°
2026-05-06 19:09 47.89049 -50.45360 38237 ft 449 kts 250°
2026-05-06 19:09 47.86909 -50.54116 38245 ft 449 kts 250°
2026-05-06 19:10 47.84764 -50.62855 38248 ft 449 kts 250°
2026-05-06 19:10 47.82610 -50.71600 38240 ft 449 kts 250°
2026-05-06 19:11 47.80450 -50.80335 38238 ft 449 kts 250°
2026-05-06 19:11 47.78297 -50.89006 38240 ft 450 kts 250°
2026-05-06 19:12 47.76118 -50.97746 38243 ft 450 kts 250°
2026-05-06 19:12 47.73935 -51.06474 38245 ft 450 kts 250°
2026-05-06 19:13 47.71749 -51.15177 38242 ft 450 kts 250°
2026-05-06 19:13 47.69551 -51.23895 38241 ft 450 kts 250°
2026-05-06 19:14 47.67362 -51.32542 38243 ft 450 kts 250°
2026-05-06 19:14 47.65152 -51.41240 38250 ft 451 kts 250°
2026-05-06 19:15 47.62934 -51.49936 38236 ft 451 kts 250°
2026-05-06 19:15 47.60709 -51.58629 38243 ft 450 kts 250°
2026-05-06 19:16 47.58482 -51.67296 38257 ft 451 kts 250°
2026-05-06 19:16 47.56244 -51.75970 38247 ft 451 kts 250°
2026-05-06 19:17 47.53997 -51.84650 38245 ft 451 kts 250°
2026-05-06 19:17 47.51759 -51.93253 38248 ft 451 kts 250°
2026-05-06 19:18 47.48788 -52.01439 38527 ft 455 kts 236°
2026-05-06 19:18 47.46775 -52.05060 38768 ft 455 kts 231°
2026-05-06 19:18 47.44652 -52.08546 38962 ft 455 kts 230°
2026-05-06 19:18 47.42484 -52.11959 39111 ft 455 kts 229°
2026-05-06 19:19 47.40297 -52.15340 39252 ft 455 kts 229°
2026-05-06 19:19 47.38102 -52.18717 39375 ft 455 kts 229°
2026-05-06 19:19 47.35906 -52.22099 39488 ft 456 kts 229°
2026-05-06 19:19 47.33717 -52.25482 39599 ft 456 kts 230°
2026-05-06 19:20 47.31531 -52.28869 39715 ft 456 kts 230°
2026-05-06 19:20 47.29377 -52.32210 39824 ft 456 kts 230°
2026-05-06 19:20 47.27189 -52.35606 39937 ft 456 kts 230°
2026-05-06 19:20 47.25005 -52.38994 40047 ft 456 kts 230°
2026-05-06 19:21 47.22819 -52.42380 40159 ft 456 kts 229°
2026-05-06 19:21 47.18435 -52.49156 40273 ft 457 kts 229°
2026-05-06 19:22 47.14041 -52.55928 40272 ft 457 kts 229°
2026-05-06 19:22 47.09646 -52.62683 40273 ft 457 kts 229°
2026-05-06 19:23 47.05246 -52.69429 40280 ft 457 kts 229°
2026-05-06 19:23 47.00839 -52.76168 40287 ft 457 kts 229°
2026-05-06 19:24 46.96430 -52.82894 40292 ft 458 kts 229°
2026-05-06 19:24 46.92043 -52.89570 40295 ft 458 kts 229°
2026-05-06 19:25 46.87624 -52.96276 40299 ft 457 kts 229°
2026-05-06 19:25 46.83212 -53.02955 40309 ft 457 kts 229°
2026-05-06 19:26 46.78793 -53.09628 40307 ft 457 kts 229°
2026-05-06 19:26 46.74374 -53.16285 40311 ft 457 kts 229°
2026-05-06 19:27 46.69950 -53.22933 40320 ft 456 kts 229°
2026-05-06 19:27 46.65518 -53.29574 40319 ft 456 kts 229°
2026-05-06 19:28 46.61090 -53.36194 40317 ft 456 kts 229°
2026-05-06 19:28 46.56684 -53.42765 40314 ft 457 kts 229°
2026-05-06 19:29 46.52250 -53.49361 40314 ft 456 kts 228°
2026-05-06 19:29 46.47801 -53.55963 40311 ft 456 kts 228°
2026-05-06 19:30 46.43357 -53.62541 40308 ft 456 kts 228°
2026-05-06 19:30 46.38905 -53.69115 40308 ft 456 kts 228°
2026-05-06 19:31 46.34455 -53.75669 40304 ft 456 kts 228°
2026-05-06 19:31 46.27802 -53.85438 40306 ft 456 kts 228°
2026-05-06 19:32 46.23346 -53.91961 40300 ft 456 kts 228°
2026-05-06 19:32 46.18856 -53.98518 40303 ft 456 kts 228°
2026-05-06 19:33 46.14425 -54.04972 40305 ft 456 kts 228°
2026-05-06 19:33 46.09955 -54.11468 40308 ft 456 kts 228°
2026-05-06 19:34 46.05485 -54.17948 40306 ft 455 kts 228°
2026-05-06 19:34 46.01010 -54.24418 40306 ft 455 kts 228°
2026-05-06 19:35 45.96538 -54.30870 40309 ft 455 kts 228°
2026-05-06 19:35 45.92059 -54.37316 40304 ft 455 kts 228°
2026-05-06 19:36 45.87619 -54.43689 40307 ft 454 kts 228°
2026-05-06 19:36 45.83150 -54.50089 40311 ft 454 kts 227°
2026-05-06 19:37 45.78677 -54.56480 40323 ft 454 kts 227°
2026-05-06 19:37 45.74957 -54.61784 40318 ft 454 kts 227°
2026-05-06 19:38 45.69726 -54.69223 40317 ft 453 kts 227°
2026-05-06 19:38 45.65248 -54.75575 40318 ft 453 kts 227°
2026-05-06 19:39 45.60777 -54.81902 40312 ft 453 kts 227°
2026-05-06 19:39 45.56292 -54.88234 40313 ft 453 kts 227°
2026-05-06 19:40 45.51810 -54.94545 40309 ft 453 kts 227°
2026-05-06 19:40 45.47321 -55.00853 40314 ft 453 kts 227°
2026-05-06 19:41 45.42829 -55.07151 40316 ft 453 kts 227°
2026-05-06 19:41 45.38338 -55.13431 40313 ft 453 kts 227°
2026-05-06 19:42 45.33842 -55.19703 40315 ft 453 kts 227°
2026-05-06 19:42 45.29357 -55.25946 40299 ft 453 kts 227°
2026-05-06 19:43 45.24844 -55.32212 40307 ft 452 kts 227°
2026-05-06 19:43 45.20370 -55.38410 40312 ft 452 kts 227°
2026-05-06 19:44 45.15855 -55.44651 40314 ft 452 kts 227°
2026-05-06 19:44 45.11367 -55.50840 40309 ft 452 kts 227°
2026-05-06 19:45 45.06861 -55.57039 40311 ft 452 kts 227°
2026-05-06 19:45 45.02352 -55.63227 40308 ft 452 kts 227°
2026-05-06 19:46 44.97838 -55.69410 40304 ft 452 kts 227°
2026-05-06 19:46 44.93326 -55.75574 40311 ft 451 kts 227°
2026-05-06 19:47 44.88842 -55.81685 40308 ft 451 kts 227°
2026-05-06 19:47 44.84324 -55.87830 40309 ft 451 kts 227°
2026-05-06 19:48 44.79813 -55.93952 40308 ft 450 kts 227°
2026-05-06 19:48 44.75295 -56.00067 40309 ft 450 kts 227°
2026-05-06 19:49 44.71543 -56.05135 40306 ft 450 kts 227°
2026-05-06 19:49 44.67019 -56.11235 40306 ft 450 kts 226°
2026-05-06 19:50 44.62489 -56.17328 40306 ft 450 kts 226°
2026-05-06 19:50 44.57994 -56.23360 40303 ft 450 kts 226°
2026-05-06 19:51 44.53469 -56.29418 40303 ft 450 kts 226°
2026-05-06 19:51 44.48937 -56.35473 40301 ft 449 kts 226°
2026-05-06 19:52 44.44404 -56.41515 40300 ft 449 kts 226°
2026-05-06 19:52 44.39873 -56.47541 40301 ft 449 kts 226°
2026-05-06 19:53 44.35374 -56.53511 40298 ft 449 kts 226°
2026-05-06 19:53 44.30832 -56.59525 40301 ft 448 kts 226°
2026-05-06 19:54 44.26300 -56.65512 40298 ft 448 kts 226°
2026-05-06 19:54 44.21761 -56.71495 40296 ft 448 kts 226°
2026-05-06 19:55 44.17241 -56.77439 40293 ft 448 kts 226°
2026-05-06 19:55 44.12699 -56.83400 40297 ft 448 kts 226°
2026-05-06 19:56 44.08156 -56.89348 40295 ft 448 kts 226°
2026-05-06 19:56 44.03605 -56.95294 40282 ft 448 kts 226°
2026-05-06 19:57 43.98904 -57.00939 40293 ft 450 kts 219°
2026-05-06 19:57 43.93782 -57.05978 40292 ft 451 kts 218°
2026-05-06 19:58 43.88592 -57.10892 40292 ft 451 kts 217°
2026-05-06 19:58 43.83391 -57.15789 40293 ft 451 kts 217°
2026-05-06 19:59 43.78224 -57.20664 40294 ft 451 kts 217°
2026-05-06 19:59 43.73032 -57.25564 40292 ft 451 kts 217°
2026-05-06 20:00 43.67844 -57.30452 40292 ft 451 kts 217°
2026-05-06 20:00 43.62653 -57.35332 40294 ft 451 kts 217°
2026-05-06 20:01 43.57456 -57.40207 40292 ft 451 kts 217°
2026-05-06 20:01 43.52255 -57.45076 40290 ft 452 kts 217°
2026-05-06 20:02 43.47050 -57.49937 40303 ft 451 kts 217°
2026-05-06 20:02 43.41887 -57.54749 40292 ft 451 kts 217°
2026-05-06 20:03 43.36677 -57.59595 40288 ft 451 kts 217°
2026-05-06 20:03 43.31482 -57.64417 40292 ft 451 kts 217°
2026-05-06 20:04 43.26315 -57.69203 40292 ft 451 kts 217°
2026-05-06 20:04 43.21096 -57.74026 40283 ft 451 kts 217°
2026-05-06 20:05 43.15887 -57.78831 40288 ft 451 kts 217°
2026-05-06 20:05 43.10674 -57.83631 40288 ft 451 kts 216°
2026-05-06 20:06 43.05992 -57.89170 40283 ft 446 kts 231°
2026-05-06 20:06 43.02037 -57.95711 40283 ft 447 kts 233°
2026-05-06 20:07 42.98218 -58.02413 40286 ft 447 kts 233°
2026-05-06 20:07 42.94398 -58.09134 40280 ft 447 kts 233°
2026-05-06 20:08 42.90559 -58.15823 40273 ft 447 kts 233°
2026-05-06 20:08 42.86729 -58.22457 40278 ft 448 kts 233°
2026-05-06 20:09 42.82856 -58.29142 40279 ft 448 kts 233°
2026-05-06 20:09 42.78995 -58.35794 40279 ft 448 kts 233°
2026-05-06 20:10 42.75122 -58.42454 40279 ft 449 kts 233°
2026-05-06 20:10 42.71261 -58.49077 40276 ft 450 kts 233°
2026-05-06 20:11 42.67363 -58.55750 40276 ft 450 kts 233°
2026-05-06 20:11 42.63460 -58.62415 40273 ft 450 kts 233°
2026-05-06 20:12 42.59552 -58.69076 40270 ft 451 kts 233°
2026-05-06 20:12 42.55633 -58.75738 40271 ft 451 kts 233°
2026-05-06 20:13 42.51740 -58.82343 40267 ft 451 kts 233°
2026-05-06 20:13 42.47812 -58.88993 40270 ft 452 kts 232°
2026-05-06 20:14 42.43872 -58.95646 40271 ft 452 kts 232°
2026-05-06 20:14 42.39930 -59.02289 40269 ft 452 kts 232°
2026-05-06 20:15 42.35987 -59.08920 40269 ft 452 kts 232°
2026-05-06 20:15 42.32036 -59.15549 40265 ft 452 kts 232°
2026-05-06 20:16 42.28106 -59.22127 40264 ft 452 kts 232°
2026-05-06 20:16 42.24150 -59.28735 40250 ft 452 kts 232°
2026-05-06 20:17 42.20178 -59.35355 40260 ft 453 kts 232°
2026-05-06 20:17 42.16204 -59.41963 40258 ft 453 kts 232°
2026-05-06 20:18 42.12246 -59.48531 40255 ft 453 kts 232°
2026-05-06 20:18 42.08265 -59.55122 40251 ft 454 kts 232°
2026-05-06 20:19 42.04268 -59.61724 40254 ft 454 kts 232°
2026-05-06 20:19 42.00271 -59.68313 40256 ft 454 kts 232°
2026-05-06 20:20 41.96266 -59.74899 40248 ft 455 kts 232°
2026-05-06 20:20 41.92279 -59.81443 40264 ft 456 kts 232°
2026-05-06 20:21 41.88245 -59.88049 40248 ft 457 kts 232°
2026-05-06 20:21 41.84203 -59.94653 40253 ft 457 kts 232°
2026-05-06 20:22 41.80151 -60.01258 40249 ft 459 kts 232°
2026-05-06 20:22 41.76092 -60.07862 40248 ft 459 kts 232°
2026-05-06 20:23 41.72046 -60.14428 40240 ft 459 kts 232°
2026-05-06 20:23 41.67977 -60.21018 40240 ft 460 kts 232°
2026-05-06 20:24 41.63893 -60.27619 40241 ft 461 kts 232°
2026-05-06 20:24 41.59797 -60.34225 40243 ft 461 kts 232°
2026-05-06 20:25 41.55699 -60.40818 40245 ft 461 kts 232°
2026-05-06 20:25 41.51597 -60.47405 40246 ft 462 kts 232°
2026-05-06 20:26 41.47511 -60.53949 40242 ft 462 kts 232°
2026-05-06 20:26 41.43392 -60.60534 40235 ft 462 kts 232°
2026-05-06 20:27 41.39263 -60.67120 40233 ft 463 kts 232°
2026-05-06 20:27 41.35126 -60.73705 40233 ft 463 kts 232°
2026-05-06 20:28 41.30983 -60.80284 40232 ft 463 kts 232°
2026-05-06 20:28 41.26856 -60.86825 40228 ft 465 kts 232°
2026-05-06 20:29 41.22690 -60.93412 40224 ft 465 kts 232°
2026-05-06 20:29 41.18523 -60.99987 40225 ft 465 kts 232°
2026-05-06 20:30 41.12250 -61.09856 40228 ft 467 kts 232°
2026-05-06 20:31 41.08051 -61.16447 40223 ft 467 kts 232°
2026-05-06 20:31 41.03877 -61.22983 40222 ft 468 kts 232°
2026-05-06 20:32 40.99670 -61.29556 40218 ft 468 kts 232°
2026-05-06 20:32 40.95456 -61.36126 40220 ft 468 kts 232°
2026-05-06 20:33 40.91241 -61.42683 40218 ft 468 kts 232°
2026-05-06 20:33 40.87040 -61.49205 40217 ft 469 kts 232°
2026-05-06 20:34 40.82806 -61.55764 40213 ft 469 kts 232°
2026-05-06 20:34 40.78564 -61.62321 40214 ft 469 kts 232°
2026-05-06 20:35 40.74321 -61.68865 40215 ft 469 kts 232°
2026-05-06 20:35 40.70063 -61.75420 40211 ft 470 kts 232°
2026-05-06 20:36 40.65827 -61.81924 40210 ft 470 kts 232°
2026-05-06 20:36 40.61561 -61.88462 40213 ft 470 kts 232°
2026-05-06 20:37 40.58007 -61.93899 40211 ft 471 kts 232°
2026-05-06 20:37 40.53033 -62.01490 40211 ft 470 kts 232°
2026-05-06 20:38 40.49480 -62.06901 40193 ft 470 kts 232°
2026-05-06 20:38 40.45195 -62.13414 40207 ft 471 kts 232°
2026-05-06 20:39 40.40891 -62.19943 40207 ft 472 kts 232°
2026-05-06 20:39 40.36618 -62.26410 40205 ft 471 kts 232°
2026-05-06 20:40 40.32322 -62.32897 40199 ft 471 kts 232°
2026-05-06 20:40 40.28013 -62.39392 40200 ft 472 kts 232°
2026-05-06 20:41 40.23698 -62.45882 40198 ft 472 kts 232°
2026-05-06 20:41 40.19385 -62.52356 40199 ft 472 kts 232°
2026-05-06 20:42 40.15066 -62.58825 40202 ft 472 kts 232°
2026-05-06 20:42 40.10768 -62.65249 40195 ft 471 kts 232°
2026-05-06 20:43 40.06446 -62.71695 40188 ft 471 kts 232°
2026-05-06 20:43 40.02114 -62.78142 40192 ft 472 kts 232°
2026-05-06 20:44 39.97776 -62.84584 40190 ft 472 kts 232°
2026-05-06 20:44 39.93438 -62.91013 40192 ft 472 kts 232°
2026-05-06 20:45 39.89126 -62.97392 40190 ft 472 kts 232°
2026-05-06 20:45 39.84780 -63.03807 40192 ft 472 kts 232°
2026-05-06 20:46 39.80425 -63.10221 40196 ft 472 kts 232°
2026-05-06 20:46 39.76068 -63.16624 40183 ft 472 kts 232°
2026-05-06 20:47 39.71707 -63.23022 40184 ft 473 kts 232°
2026-05-06 20:47 39.67339 -63.29416 40184 ft 473 kts 232°
2026-05-06 20:48 39.62998 -63.35757 40192 ft 473 kts 232°
2026-05-06 20:48 39.58628 -63.42127 40181 ft 473 kts 232°
2026-05-06 20:49 39.54252 -63.48492 40182 ft 472 kts 232°
2026-05-06 20:49 39.49876 -63.54846 40181 ft 472 kts 232°
2026-05-06 20:50 39.45500 -63.61186 40180 ft 473 kts 232°
2026-05-06 20:50 39.41105 -63.67540 40182 ft 473 kts 232°
2026-05-06 20:51 39.36715 -63.73875 40185 ft 473 kts 232°
2026-05-06 20:51 39.32343 -63.80171 40177 ft 474 kts 232°
2026-05-06 20:52 39.27922 -63.86524 40182 ft 475 kts 232°
2026-05-06 20:52 39.23497 -63.92869 40184 ft 475 kts 232°
2026-05-06 20:53 39.19068 -63.99207 40184 ft 475 kts 232°
2026-05-06 20:53 39.14667 -64.05493 40179 ft 476 kts 233°
2026-05-06 20:54 39.10220 -64.11833 40182 ft 477 kts 233°
2026-05-06 20:54 39.05769 -64.18165 40184 ft 478 kts 233°
2026-05-06 20:55 39.01304 -64.24503 40180 ft 478 kts 233°
2026-05-06 20:55 38.96812 -64.30866 40178 ft 479 kts 233°
2026-05-06 20:56 38.92326 -64.37209 40185 ft 479 kts 233°
2026-05-06 20:56 38.87828 -64.43555 40185 ft 480 kts 233°
2026-05-06 20:57 38.83355 -64.49853 40181 ft 481 kts 233°
2026-05-06 20:57 38.78835 -64.56207 40185 ft 482 kts 233°
2026-05-06 20:58 38.74300 -64.62565 40181 ft 482 kts 233°
2026-05-06 20:58 38.69767 -64.68910 40181 ft 482 kts 233°
2026-05-06 20:59 38.65258 -64.75209 40182 ft 483 kts 233°
2026-05-06 20:59 38.60708 -64.81551 40184 ft 483 kts 233°
2026-05-06 21:00 38.56156 -64.87883 40177 ft 483 kts 233°
2026-05-06 21:00 38.51599 -64.94212 40181 ft 484 kts 233°
2026-05-06 21:01 38.47500 -65.00945 40176 ft 478 kts 241°
2026-05-06 21:01 38.43658 -65.07839 40175 ft 476 kts 242°
2026-05-06 21:02 38.39885 -65.14702 40174 ft 475 kts 242°
2026-05-06 21:02 38.36073 -65.21611 40175 ft 477 kts 242°
2026-05-06 21:03 38.32236 -65.28524 40171 ft 477 kts 242°
2026-05-06 21:03 38.28403 -65.35403 40169 ft 474 kts 242°
2026-05-06 21:04 38.24593 -65.42225 40172 ft 472 kts 242°
2026-05-06 21:04 38.20786 -65.49037 40163 ft 473 kts 242°
2026-05-06 21:05 38.16962 -65.55865 40169 ft 473 kts 242°
2026-05-06 21:05 38.13136 -65.62679 40170 ft 473 kts 243°
2026-05-06 21:06 38.09326 -65.69442 40167 ft 467 kts 243°
2026-05-06 21:06 38.05571 -65.76100 40165 ft 466 kts 243°
2026-05-06 21:07 38.01795 -65.82790 40164 ft 466 kts 243°
2026-05-06 21:07 37.98014 -65.89474 40163 ft 466 kts 243°
2026-05-06 21:08 37.94232 -65.96141 40163 ft 465 kts 243°
2026-05-06 21:08 37.90465 -66.02763 40161 ft 463 kts 243°
2026-05-06 21:09 37.86721 -66.09340 40154 ft 463 kts 243°
2026-05-06 21:09 37.82946 -66.15958 40155 ft 463 kts 243°
2026-05-06 21:10 37.79163 -66.22574 40170 ft 463 kts 243°
2026-05-06 21:10 37.75384 -66.29166 40161 ft 461 kts 243°
2026-05-06 21:11 37.71627 -66.35706 40160 ft 459 kts 243°
2026-05-06 21:11 37.67894 -66.42198 40161 ft 459 kts 243°
2026-05-06 21:12 37.64142 -66.48711 40160 ft 459 kts 243°
2026-05-06 21:12 37.60376 -66.55233 40154 ft 459 kts 244°
2026-05-06 21:13 37.56636 -66.61697 40160 ft 458 kts 244°
2026-05-06 21:13 37.52879 -66.68172 40158 ft 457 kts 244°
2026-05-06 21:14 37.49126 -66.74636 40156 ft 456 kts 244°
2026-05-06 21:14 37.45374 -66.81086 40157 ft 456 kts 244°
2026-05-06 21:15 37.41637 -66.87505 40158 ft 458 kts 244°
2026-05-06 21:15 37.37865 -66.93954 40156 ft 457 kts 244°
2026-05-06 21:16 37.34090 -67.00393 40157 ft 456 kts 244°
2026-05-06 21:16 37.30330 -67.06803 40154 ft 456 kts 244°
2026-05-06 21:17 37.26578 -67.13188 40156 ft 456 kts 244°
2026-05-06 21:17 37.22824 -67.19566 40151 ft 457 kts 244°
2026-05-06 21:18 37.19043 -67.25973 40156 ft 455 kts 244°
2026-05-06 21:18 37.15282 -67.32330 40154 ft 453 kts 244°
2026-05-06 21:19 37.11519 -67.38685 40143 ft 453 kts 244°
2026-05-06 21:19 37.07775 -67.45002 40154 ft 455 kts 244°
2026-05-06 21:20 37.03986 -67.51377 40155 ft 455 kts 244°
2026-05-06 21:20 37.00199 -67.57733 40153 ft 454 kts 244°
2026-05-06 21:21 36.96440 -67.64028 40153 ft 453 kts 243°
2026-05-06 21:21 36.92659 -67.70355 40150 ft 455 kts 244°
2026-05-06 21:22 36.88852 -67.76718 40153 ft 456 kts 243°
2026-05-06 21:22 36.85044 -67.83063 40152 ft 456 kts 243°
2026-05-06 21:23 36.81255 -67.89362 40152 ft 456 kts 243°
2026-05-06 21:23 36.77438 -67.95698 40148 ft 456 kts 243°
2026-05-06 21:24 36.73607 -68.02050 40151 ft 458 kts 243°
2026-05-06 21:24 36.69771 -68.08396 40151 ft 459 kts 243°
2026-05-06 21:25 36.65922 -68.14747 40154 ft 459 kts 243°
2026-05-06 21:25 36.62099 -68.21046 40148 ft 458 kts 243°
2026-05-06 21:26 36.58243 -68.27387 40150 ft 459 kts 243°
2026-05-06 21:26 36.54385 -68.33734 40149 ft 460 kts 243°
2026-05-06 21:27 36.51170 -68.38999 40148 ft 460 kts 243°
2026-05-06 21:27 36.47289 -68.45339 40148 ft 460 kts 243°
2026-05-06 21:28 36.43434 -68.51630 40146 ft 460 kts 243°
2026-05-06 21:28 36.39558 -68.57943 40145 ft 458 kts 242°
2026-05-06 21:29 36.35694 -68.64226 40141 ft 457 kts 242°
2026-05-06 21:29 36.31828 -68.70506 40146 ft 457 kts 242°
2026-05-06 21:30 36.27968 -68.76764 40143 ft 457 kts 242°
2026-05-06 21:30 36.24122 -68.82986 40143 ft 458 kts 242°
2026-05-06 21:31 36.20233 -68.89268 40142 ft 459 kts 242°
2026-05-06 21:31 36.16335 -68.95543 40144 ft 458 kts 242°
2026-05-06 21:32 36.12449 -69.01793 40139 ft 458 kts 242°
2026-05-06 21:32 36.06609 -69.11167 40134 ft 459 kts 242°
2026-05-06 21:33 36.02697 -69.17438 40140 ft 462 kts 242°
2026-05-06 21:33 35.98794 -69.23676 40139 ft 461 kts 242°
2026-05-06 21:34 35.94868 -69.29935 40135 ft 460 kts 242°
2026-05-06 21:34 35.90944 -69.36184 40134 ft 460 kts 242°
2026-05-06 21:35 35.87018 -69.42427 40136 ft 461 kts 242°
2026-05-06 21:35 35.83084 -69.48674 40145 ft 461 kts 242°
2026-05-06 21:36 35.79138 -69.54925 40139 ft 461 kts 241°
2026-05-06 21:36 35.75230 -69.61100 40137 ft 459 kts 241°
2026-05-06 21:37 35.71298 -69.67306 40114 ft 459 kts 241°
2026-05-06 21:37 35.67359 -69.73518 40137 ft 461 kts 241°
2026-05-06 21:38 35.63393 -69.79756 40135 ft 462 kts 241°
2026-05-06 21:38 35.59453 -69.85941 40137 ft 462 kts 241°
2026-05-06 21:39 35.55485 -69.92156 40141 ft 461 kts 241°
2026-05-06 21:39 35.51526 -69.98348 40134 ft 461 kts 241°
2026-05-06 21:40 35.47584 -70.04508 40142 ft 462 kts 241°
2026-05-06 21:40 35.43600 -70.10719 40139 ft 462 kts 241°
2026-05-06 21:41 35.39616 -70.16916 40138 ft 462 kts 241°
2026-05-06 21:41 35.35631 -70.23103 40136 ft 462 kts 241°
2026-05-06 21:42 35.31669 -70.29247 40138 ft 462 kts 241°
2026-05-06 21:42 35.27669 -70.35441 40130 ft 464 kts 241°
2026-05-06 21:43 35.23654 -70.41643 40141 ft 464 kts 241°
2026-05-06 21:43 35.19639 -70.47834 40139 ft 464 kts 241°
2026-05-06 21:44 35.15650 -70.53975 40142 ft 464 kts 241°
2026-05-06 21:44 35.11638 -70.60135 40140 ft 462 kts 241°
2026-05-06 21:45 35.07629 -70.66286 40136 ft 462 kts 241°
2026-05-06 21:45 35.03611 -70.72441 40144 ft 462 kts 241°
2026-05-06 21:46 34.99618 -70.78546 40140 ft 462 kts 241°
2026-05-06 21:46 34.95595 -70.84685 40144 ft 462 kts 241°
2026-05-06 21:47 34.91596 -70.90778 40138 ft 463 kts 241°
2026-05-06 21:47 34.87571 -70.96898 40145 ft 462 kts 241°
2026-05-06 21:48 34.83546 -71.03007 40139 ft 462 kts 241°
2026-05-06 21:48 34.79522 -71.09105 40138 ft 462 kts 241°
2026-05-06 21:49 34.75519 -71.15163 40126 ft 462 kts 241°
2026-05-06 21:49 34.71480 -71.21264 40141 ft 463 kts 241°
2026-05-06 21:50 34.67424 -71.27381 40140 ft 464 kts 241°
2026-05-06 21:50 34.63368 -71.33487 40140 ft 464 kts 241°
2026-05-06 21:51 34.59334 -71.39543 40140 ft 464 kts 241°
2026-05-06 21:51 34.55276 -71.45626 40140 ft 464 kts 241°
2026-05-06 21:52 34.51209 -71.51712 40143 ft 464 kts 241°
2026-05-06 21:52 34.47145 -71.57786 40137 ft 463 kts 241°
2026-05-06 21:53 34.43082 -71.63846 40139 ft 462 kts 241°
2026-05-06 21:53 34.39020 -71.69896 40141 ft 462 kts 241°
2026-05-06 21:54 34.34990 -71.75889 40132 ft 462 kts 241°
2026-05-06 21:54 34.30915 -71.81939 40140 ft 463 kts 241°
2026-05-06 21:55 34.26836 -71.87983 40140 ft 463 kts 241°
2026-05-06 21:55 34.22761 -71.94010 40133 ft 463 kts 242°
2026-05-06 21:56 34.18686 -72.00025 40139 ft 462 kts 242°
2026-05-06 21:56 34.14633 -72.06001 40132 ft 462 kts 241°
2026-05-06 21:57 34.10549 -72.12015 40133 ft 463 kts 241°
2026-05-06 21:57 34.06458 -72.18027 40135 ft 463 kts 241°
2026-05-06 21:58 34.02391 -72.23991 40144 ft 463 kts 241°
2026-05-06 21:58 33.98005 -72.29769 40135 ft 477 kts 232°
2026-05-06 21:59 33.92457 -72.34435 40132 ft 491 kts 223°
2026-05-06 21:59 33.86577 -72.38716 40138 ft 495 kts 221°
2026-05-06 22:00 33.80652 -72.42934 40138 ft 495 kts 221°
2026-05-06 22:00 33.74770 -72.47152 40138 ft 494 kts 221°
2026-05-06 22:01 33.68866 -72.51414 40134 ft 495 kts 221°
2026-05-06 22:01 33.62958 -72.55680 40135 ft 495 kts 221°
2026-05-06 22:02 33.57052 -72.59938 40137 ft 495 kts 221°
2026-05-06 22:02 33.51177 -72.64162 40137 ft 494 kts 222°
2026-05-06 22:03 33.45279 -72.68399 40134 ft 494 kts 222°
2026-05-06 22:03 33.39367 -72.72639 40135 ft 495 kts 222°
2026-05-06 22:04 33.33451 -72.76874 40135 ft 495 kts 222°
2026-05-06 22:04 33.27540 -72.81099 40137 ft 495 kts 221°
2026-05-06 22:05 33.21659 -72.85296 40135 ft 496 kts 221°
2026-05-06 22:05 33.15718 -72.89530 40135 ft 496 kts 221°
2026-05-06 22:06 33.09778 -72.93755 40135 ft 496 kts 221°
2026-05-06 22:06 33.03844 -72.97967 40123 ft 494 kts 221°
2026-05-06 22:07 32.97974 -73.02126 40136 ft 493 kts 221°
2026-05-06 22:07 32.92068 -73.06311 40137 ft 494 kts 221°
2026-05-06 22:08 32.86155 -73.10492 40128 ft 494 kts 221°
2026-05-06 22:08 32.80237 -73.14669 40131 ft 494 kts 221°
2026-05-06 22:09 32.74350 -73.18819 40132 ft 495 kts 221°
2026-05-06 22:09 32.68415 -73.22994 40132 ft 495 kts 221°
2026-05-06 22:10 32.62489 -73.27157 40133 ft 495 kts 221°
2026-05-06 22:10 32.56557 -73.31316 40133 ft 494 kts 221°
2026-05-06 22:11 32.50694 -73.35419 40131 ft 492 kts 221°
2026-05-06 22:11 32.44807 -73.39535 40127 ft 491 kts 221°
2026-05-06 22:12 32.38919 -73.43648 40127 ft 491 kts 221°
2026-05-06 22:12 32.33028 -73.47756 40129 ft 491 kts 221°
2026-05-06 22:13 32.27125 -73.51865 40129 ft 491 kts 221°
2026-05-06 22:13 32.21255 -73.55944 40129 ft 491 kts 221°
2026-05-06 22:14 32.16358 -73.59342 40132 ft 491 kts 221°
2026-05-06 22:14 32.09485 -73.64106 40132 ft 491 kts 221°
2026-05-06 22:15 32.04579 -73.67500 40128 ft 491 kts 221°
2026-05-06 22:15 31.98674 -73.71579 40133 ft 491 kts 221°
2026-05-06 22:16 31.92783 -73.75644 40131 ft 491 kts 221°
2026-05-06 22:16 31.86888 -73.79706 40131 ft 491 kts 221°
2026-05-06 22:17 31.81161 -73.83919 40123 ft 479 kts 229°
2026-05-06 22:17 31.78706 -73.86485 40130 ft 465 kts 237°
2026-05-06 22:17 31.76547 -73.89287 40129 ft 461 kts 239°
2026-05-06 22:18 31.72448 -73.95049 40129 ft 458 kts 241°
2026-05-06 22:18 31.68423 -74.00874 40130 ft 458 kts 242°
2026-05-06 22:19 31.64421 -74.06630 40130 ft 456 kts 241°
2026-05-06 22:19 31.60382 -74.12391 40116 ft 456 kts 241°
2026-05-06 22:20 31.56344 -74.18130 40123 ft 456 kts 241°
2026-05-06 22:20 31.52303 -74.23863 40125 ft 455 kts 241°
2026-05-06 22:21 31.48288 -74.29551 40124 ft 455 kts 241°
2026-05-06 22:21 31.44243 -74.35273 40121 ft 456 kts 241°
2026-05-06 22:22 31.40204 -74.40976 40120 ft 453 kts 241°
2026-05-06 22:22 31.36181 -74.46650 40121 ft 453 kts 241°
2026-05-06 22:23 31.32128 -74.52313 40120 ft 453 kts 240°
2026-05-06 22:23 31.28124 -74.57949 40119 ft 453 kts 241°
2026-05-06 22:24 31.24100 -74.63632 40120 ft 453 kts 241°
2026-05-06 22:24 31.20071 -74.69295 40120 ft 453 kts 241°
2026-05-06 22:25 31.16028 -74.74957 40120 ft 453 kts 240°
2026-05-06 22:25 31.11977 -74.80623 40114 ft 455 kts 240°
2026-05-06 22:26 31.07915 -74.86294 40122 ft 455 kts 240°
2026-05-06 22:26 31.03847 -74.91963 40121 ft 455 kts 240°
2026-05-06 22:27 30.99802 -74.97593 40118 ft 455 kts 240°
2026-05-06 22:27 30.95728 -75.03255 40115 ft 455 kts 240°
2026-05-06 22:28 30.91655 -75.08908 40099 ft 455 kts 240°
2026-05-06 22:28 30.87599 -75.14530 40121 ft 455 kts 240°
2026-05-06 22:29 30.83854 -75.19713 40119 ft 455 kts 240°
2026-05-06 22:29 30.79801 -75.25315 40108 ft 455 kts 240°
2026-05-06 22:30 30.75721 -75.30946 40117 ft 455 kts 240°
2026-05-06 22:30 30.71642 -75.36567 40101 ft 455 kts 240°
2026-05-06 22:31 30.67548 -75.42202 40105 ft 455 kts 240°
2026-05-06 22:31 30.63460 -75.47819 40110 ft 454 kts 240°
2026-05-06 22:32 30.59380 -75.53414 40111 ft 453 kts 240°
2026-05-06 22:32 30.55327 -75.58970 40110 ft 453 kts 240°
2026-05-06 22:33 30.51244 -75.64558 40108 ft 453 kts 240°
2026-05-06 22:33 30.47163 -75.70135 40108 ft 453 kts 240°
2026-05-06 22:34 30.43095 -75.75686 40109 ft 454 kts 239°
2026-05-06 22:34 30.38996 -75.81273 40106 ft 454 kts 239°
2026-05-06 22:35 30.34909 -75.86828 40105 ft 453 kts 239°
2026-05-06 22:35 30.30823 -75.92380 40110 ft 452 kts 239°
2026-05-06 22:36 30.26738 -75.97924 40105 ft 452 kts 239°
2026-05-06 22:36 30.22738 -76.03468 40101 ft 451 kts 242°
2026-05-06 22:37 30.18718 -76.09061 40100 ft 454 kts 241°
2026-05-06 22:37 30.14616 -76.14665 40103 ft 457 kts 240°
2026-05-06 22:38 30.10502 -76.20211 40102 ft 455 kts 240°
2026-05-06 22:38 30.06377 -76.25755 40102 ft 455 kts 240°
2026-05-06 22:39 30.02256 -76.31296 40105 ft 454 kts 240°
2026-05-06 22:39 29.98137 -76.36831 40102 ft 454 kts 240°
2026-05-06 22:40 29.94012 -76.42366 40102 ft 454 kts 240°
2026-05-06 22:40 29.89907 -76.47866 40099 ft 455 kts 240°
2026-05-06 22:41 29.83724 -76.56133 40099 ft 452 kts 240°
2026-05-06 22:42 29.79613 -76.61621 40099 ft 452 kts 240°
2026-05-06 22:42 29.75506 -76.67099 40097 ft 452 kts 240°
2026-05-06 22:43 29.71394 -76.72576 40091 ft 452 kts 240°
2026-05-06 22:43 29.67271 -76.78062 40098 ft 454 kts 240°
2026-05-06 22:44 29.63153 -76.83530 40099 ft 454 kts 240°
2026-05-06 22:44 29.58605 -76.88707 40104 ft 466 kts 231°
2026-05-06 22:45 29.53675 -76.93523 40096 ft 463 kts 231°
2026-05-06 22:45 29.48760 -76.98326 40095 ft 463 kts 231°
2026-05-06 22:46 29.43886 -77.03094 40092 ft 464 kts 231°
2026-05-06 22:46 29.38963 -77.07906 40094 ft 465 kts 231°
2026-05-06 22:47 29.34035 -77.12716 40093 ft 465 kts 231°
2026-05-06 22:47 29.29106 -77.17522 40094 ft 465 kts 231°
2026-05-06 22:48 29.24176 -77.22322 40093 ft 465 kts 231°
2026-05-06 22:48 29.19240 -77.27122 40094 ft 464 kts 231°
2026-05-06 22:49 29.14316 -77.31905 40092 ft 464 kts 231°
2026-05-06 22:49 29.09386 -77.36686 40091 ft 465 kts 231°
2026-05-06 22:50 29.04485 -77.41434 40097 ft 465 kts 231°
2026-05-06 22:50 28.99546 -77.46212 40092 ft 465 kts 231°
2026-05-06 22:51 28.94598 -77.50993 40072 ft 465 kts 230°
2026-05-06 22:51 28.89683 -77.55737 40087 ft 466 kts 230°
2026-05-06 22:52 28.84729 -77.60511 40090 ft 465 kts 230°
2026-05-06 22:52 28.79793 -77.65260 40089 ft 464 kts 230°
2026-05-06 22:53 28.74857 -77.70005 40087 ft 463 kts 230°
2026-05-06 22:53 28.69927 -77.74738 40086 ft 464 kts 230°
2026-05-06 22:54 28.64987 -77.79475 40086 ft 465 kts 230°
2026-05-06 22:54 28.60035 -77.84217 40089 ft 465 kts 230°
2026-05-06 22:55 28.55077 -77.88958 40083 ft 465 kts 230°
2026-05-06 22:55 28.50124 -77.93688 40083 ft 465 kts 230°
2026-05-06 22:56 28.45199 -77.98386 40090 ft 464 kts 230°
2026-05-06 22:56 28.40247 -78.03103 40086 ft 464 kts 229°
2026-05-06 22:57 28.35287 -78.07824 40092 ft 465 kts 229°
2026-05-06 22:57 28.30322 -78.12542 40088 ft 465 kts 229°
2026-05-06 22:58 28.25360 -78.17251 40088 ft 465 kts 229°
2026-05-06 22:58 28.20418 -78.21935 40088 ft 465 kts 229°
2026-05-06 22:59 28.15452 -78.26637 40072 ft 465 kts 229°
2026-05-06 22:59 28.10465 -78.31354 40083 ft 467 kts 229°
2026-05-06 23:00 28.05476 -78.36064 40096 ft 467 kts 229°
2026-05-06 23:00 28.00478 -78.40778 40096 ft 467 kts 229°
2026-05-06 23:01 27.95479 -78.45492 40088 ft 467 kts 231°
2026-05-06 23:01 27.90533 -78.50262 40077 ft 467 kts 231°
2026-05-06 23:02 27.85580 -78.54968 40087 ft 469 kts 230°
2026-05-06 23:02 27.80554 -78.59701 40083 ft 470 kts 230°
2026-05-06 23:03 27.76366 -78.63631 40083 ft 470 kts 230°
2026-05-06 23:03 27.71319 -78.68358 40083 ft 470 kts 230°
2026-05-06 23:04 27.66307 -78.73046 40082 ft 470 kts 230°
2026-05-06 23:04 27.61268 -78.77753 40082 ft 469 kts 230°
2026-05-06 23:05 27.56229 -78.82454 40082 ft 471 kts 230°
2026-05-06 23:05 27.51164 -78.87173 40083 ft 471 kts 230°
2026-05-06 23:06 27.46134 -78.91853 40081 ft 471 kts 230°
2026-05-06 23:06 27.41062 -78.96567 40082 ft 471 kts 230°
2026-05-06 23:07 27.35996 -79.01270 40083 ft 471 kts 230°
2026-05-06 23:07 27.30969 -79.05930 40078 ft 471 kts 230°
2026-05-06 23:08 27.25910 -79.10614 40080 ft 470 kts 229°
2026-05-06 23:08 27.20863 -79.15283 40077 ft 470 kts 229°
2026-05-06 23:09 27.15816 -79.19945 40073 ft 470 kts 229°
2026-05-06 23:09 27.10764 -79.24607 40074 ft 470 kts 229°
2026-05-06 23:10 27.05712 -79.29263 40057 ft 470 kts 229°
2026-05-06 23:10 27.00655 -79.33918 40067 ft 471 kts 229°
2026-05-06 23:11 26.95604 -79.38559 39580 ft 465 kts 229°
2026-05-06 23:11 26.93089 -79.40875 38651 ft 471 kts 229°
2026-05-06 23:11 26.90545 -79.43222 37502 ft 478 kts 229°
2026-05-06 23:11 26.87962 -79.45603 36515 ft 482 kts 229°
2026-05-06 23:12 26.85397 -79.47968 35536 ft 486 kts 228°
2026-05-06 23:12 26.82771 -79.50385 34616 ft 489 kts 228°
2026-05-06 23:12 26.80126 -79.52812 33736 ft 491 kts 227°
2026-05-06 23:12 26.77480 -79.55231 32865 ft 490 kts 227°
2026-05-06 23:13 26.74842 -79.57638 32072 ft 488 kts 227°
2026-05-06 23:13 26.72216 -79.60032 31387 ft 485 kts 227°
2026-05-06 23:13 26.69614 -79.62402 30752 ft 481 kts 227°
2026-05-06 23:13 26.67026 -79.64759 30143 ft 477 kts 226°
2026-05-06 23:14 26.64461 -79.67096 29427 ft 473 kts 226°
2026-05-06 23:14 26.61921 -79.69410 28733 ft 469 kts 226°
2026-05-06 23:14 26.59427 -79.71680 28058 ft 466 kts 226°
2026-05-06 23:14 26.56925 -79.73957 27394 ft 462 kts 227°
2026-05-06 23:15 26.54443 -79.76215 26745 ft 459 kts 227°
2026-05-06 23:15 26.51973 -79.78461 26097 ft 455 kts 227°
2026-05-06 23:15 26.49523 -79.80687 25466 ft 452 kts 226°
2026-05-06 23:15 26.47097 -79.82890 24870 ft 448 kts 226°
2026-05-06 23:16 26.44685 -79.85080 24247 ft 445 kts 226°
2026-05-06 23:16 26.42291 -79.87253 23634 ft 443 kts 227°
2026-05-06 23:16 26.39900 -79.89421 22924 ft 439 kts 226°
2026-05-06 23:16 26.37538 -79.91562 22276 ft 435 kts 226°
2026-05-06 23:17 26.35227 -79.93655 21632 ft 431 kts 226°
2026-05-06 23:17 26.32907 -79.95755 21012 ft 427 kts 225°
2026-05-06 23:17 26.30615 -79.97830 20388 ft 423 kts 225°
2026-05-06 23:17 26.28340 -79.99887 19783 ft 419 kts 225°
2026-05-06 23:18 26.25999 -80.01813 19075 ft 420 kts 215°
2026-05-06 23:18 26.23343 -80.03079 18279 ft 409 kts 200°
2026-05-06 23:18 26.20591 -80.03741 17340 ft 395 kts 194°
2026-05-06 23:18 26.17982 -80.04257 16925 ft 369 kts 194°
2026-05-06 23:19 26.15547 -80.04757 16507 ft 358 kts 195°
2026-05-06 23:19 26.13082 -80.05290 15954 ft 361 kts 195°
2026-05-06 23:19 26.10618 -80.05837 15470 ft 361 kts 195°
2026-05-06 23:19 26.08159 -80.06390 15008 ft 360 kts 194°
2026-05-06 23:20 26.05712 -80.06952 14549 ft 358 kts 195°
2026-05-06 23:20 26.03291 -80.07573 14079 ft 356 kts 196°
2026-05-06 23:20 26.00878 -80.08213 13573 ft 355 kts 196°
2026-05-06 23:20 25.98465 -80.08855 13081 ft 357 kts 196°
2026-05-06 23:21 25.96056 -80.09497 12573 ft 355 kts 196°
2026-05-06 23:21 25.93660 -80.10142 12102 ft 352 kts 197°
2026-05-06 23:21 25.91361 -80.11049 11581 ft 349 kts 208°
2026-05-06 23:21 25.89198 -80.12259 11068 ft 346 kts 211°
2026-05-06 23:22 25.87076 -80.13505 10564 ft 343 kts 211°
2026-05-06 23:22 25.84978 -80.14729 10231 ft 334 kts 211°
2026-05-06 23:22 25.82989 -80.15879 10100 ft 319 kts 210°
2026-05-06 23:22 25.81064 -80.16985 9979 ft 304 kts 210°
2026-05-06 23:23 25.79212 -80.18044 9683 ft 297 kts 210°
2026-05-06 23:23 25.77385 -80.19090 9280 ft 294 kts 210°
2026-05-06 23:23 25.75574 -80.20129 8904 ft 290 kts 211°
2026-05-06 23:23 25.73839 -80.21247 8542 ft 286 kts 220°
2026-05-06 23:24 25.72553 -80.22883 8165 ft 280 kts 248°
2026-05-06 23:24 25.71953 -80.24902 7796 ft 273 kts 262°
2026-05-06 23:24 25.71562 -80.26943 7488 ft 268 kts 265°
2026-05-06 23:24 25.71360 -80.28982 7171 ft 262 kts 272°
2026-05-06 23:25 25.71269 -80.30956 6867 ft 248 kts 273°
2026-05-06 23:25 25.71166 -80.32775 6584 ft 232 kts 270°
2026-05-06 23:25 25.71017 -80.34506 6283 ft 221 kts 269°
2026-05-06 23:25 25.70875 -80.36190 5992 ft 218 kts 270°
2026-05-06 23:26 25.70739 -80.37854 5733 ft 213 kts 271°
2026-05-06 23:26 25.70589 -80.39477 5439 ft 210 kts 269°
2026-05-06 23:26 25.70448 -80.41076 5153 ft 207 kts 270°
2026-05-06 23:26 25.70313 -80.42628 5002 ft 196 kts 270°
2026-05-06 23:27 25.70176 -80.44062 4976 ft 177 kts 269°
2026-05-06 23:27 25.70046 -80.45377 5006 ft 178 kts 270°
2026-05-06 23:27 25.69912 -80.46870 5025 ft 215 kts 270°
2026-05-06 23:27 25.69776 -80.48599 5001 ft 232 kts 270°
2026-05-06 23:28 25.69639 -80.50407 4984 ft 236 kts 270°
2026-05-06 23:28 25.69499 -80.52221 4993 ft 236 kts 270°
2026-05-06 23:28 25.69383 -80.54039 5001 ft 237 kts 272°
2026-05-06 23:28 25.69614 -80.55822 4994 ft 232 kts 291°
2026-05-06 23:29 25.70425 -80.57351 4989 ft 231 kts 316°
2026-05-06 23:29 25.71778 -80.58282 4994 ft 233 kts 346°
2026-05-06 23:29 25.73375 -80.58243 4989 ft 235 kts 24°
2026-05-06 23:29 25.74643 -80.57125 4980 ft 237 kts 60°
2026-05-06 23:30 25.75282 -80.55439 4928 ft 239 kts 75°
2026-05-06 23:30 25.75796 -80.53698 4655 ft 234 kts 74°
2026-05-06 23:30 25.76331 -80.52035 4495 ft 223 kts 71°
2026-05-06 23:30 25.76871 -80.50503 4366 ft 208 kts 70°
2026-05-06 23:31 25.77396 -80.49055 3974 ft 200 kts 71°
2026-05-06 23:31 25.77795 -80.47536 3302 ft 206 kts 82°
2026-05-06 23:31 25.77948 -80.45940 2627 ft 207 kts 91°
2026-05-06 23:31 25.77982 -80.44430 2161 ft 188 kts 95°
2026-05-06 23:32 25.78033 -80.43073 1997 ft 165 kts 84°
2026-05-06 23:32 25.78185 -80.41891 1868 ft 145 kts 96°
2026-05-06 23:32 25.78192 -80.40827 1694 ft 133 kts 93°
2026-05-06 23:32 25.78235 -80.39807 1548 ft 134 kts 94°
2026-05-06 23:33 25.78284 -80.38734 1388 ft 143 kts 93°
2026-05-06 23:33 25.78337 -80.37633 1186 ft 141 kts 94°
2026-05-06 23:33 25.78386 -80.36559 1000 ft 139 kts 95°
2026-05-06 23:33 25.78426 -80.35481 851 ft 141 kts 94°
2026-05-06 23:34 25.78492 -80.34394 692 ft 139 kts 91°
2026-05-06 23:34 25.78549 -80.33357 464 ft 134 kts 89°
2026-05-06 23:34 25.78580 -80.32316 284 ft 136 kts 90°
2026-05-06 23:34 25.78622 -80.31267 63 ft 134 kts 88°
2026-05-06 23:35 25.78661 -80.30281 22 ft 114 kts 87°
2026-05-06 23:35 25.78690 -80.29537 23 ft 79 kts 87°
2026-05-06 23:35 25.78710 -80.29072 25 ft 34 kts 87°
2026-05-06 23:35 25.78726 -80.28838 24 ft 30 kts 78°
2026-05-06 23:36 25.78828 -80.28671 24 ft 22 kts 41°
2026-05-06 23:36 25.78958 -80.28561 24 ft 25 kts 34°
2026-05-06 23:36 25.79101 -80.28456 25 ft 12 kts 30°
2026-05-06 23:36 25.79120 -80.28443 25 ft 0 kts 31°
2026-05-06 23:37 25.79141 -80.28429 25 ft 9 kts 31°
2026-05-06 23:38 25.79205 -80.28387 24 ft 0 kts 49°
2026-05-06 23:38 25.79208 -80.28357 24 ft 14 kts 95°
2026-05-06 23:38 25.79202 -80.28332 23 ft 6 kts 101°
2026-05-06 23:38 25.79207 -80.28294 24 ft 2 kts 79°
2026-05-06 23:39 25.79208 -80.28283 24 ft 2 kts 79°
2026-05-06 23:39 25.79209 -80.28282 24 ft 0 kts 79°
2026-05-06 23:39 25.79209 -80.28281 24 ft 0 kts 79°